Time,TemperatureF,DewpointF,PressureIn,WindDirection,WindDirectionDegrees,WindSpeedMPH,WindSpeedGustMPH,Humidity,HourlyPrecipIn,Conditions,Clouds,dailyrainin,SoftwareType,DateUTC
2013-11-01 00:00:00,77.4,71.3,29.57,SSE,156,0.0,0.0,82,0.00,,,0.00,VWS V14.01,2013-11-01 04:00:00,
2013-11-01 00:02:00,76.9,71.5,29.57,SSE,156,0.0,0.0,84,0.00,,,0.00,VWS V14.01,2013-11-01 04:02:00,
2013-11-01 00:03:00,76.9,71.5,29.57,SSE,156,0.0,0.0,84,0.00,,,0.00,VWS V14.01,2013-11-01 04:03:00,
2013-11-01 00:04:00,76.9,71.5,29.56,SSE,156,0.0,0.0,84,0.00,,,0.00,VWS V14.01,2013-11-01 04:04:00,
2013-11-01 00:06:00,76.9,71.6,29.57,SSE,156,0.0,0.0,84,0.00,,,0.00,VWS V14.01,2013-11-01 04:06:00,
2013-11-01 00:08:00,76.8,71.5,29.57,SSE,156,0.0,0.0,84,0.00,,,0.00,VWS V14.01,2013-11-01 04:08:00,
2013-11-01 00:10:00,76.9,71.6,29.56,SSE,156,0.0,0.0,84,0.00,,,0.00,VWS V14.01,2013-11-01 04:10:00,
2013-11-01 00:12:00,76.8,71.5,29.56,SSE,156,0.0,0.0,84,0.00,,,0.00,VWS V14.01,2013-11-01 04:12:00,
2013-11-01 00:13:00,76.9,71.6,29.56,SSE,156,0.0,0.0,84,0.00,,,0.00,VWS V14.01,2013-11-01 04:13:00,
2013-11-01 00:14:00,76.8,71.5,29.56,SSE,156,0.0,0.0,84,0.00,,,0.00,VWS V14.01,2013-11-01 04:14:00,
2013-11-01 00:16:00,76.7,71.5,29.56,SSE,156,0.0,0.0,84,0.00,,,0.00,VWS V14.01,2013-11-01 04:16:00,
2013-11-01 00:18:00,76.7,71.5,29.56,SSE,156,0.0,0.0,84,0.00,,,0.00,VWS V14.01,2013-11-01 04:18:00,
2013-11-01 00:20:00,76.7,71.5,29.56,SSE,156,0.0,0.0,84,0.00,,,0.00,VWS V14.01,2013-11-01 04:20:00,
2013-11-01 00:22:00,76.7,71.5,29.56,SSE,156,0.0,0.0,84,0.00,,,0.00,VWS V14.01,2013-11-01 04:22:00,
2013-11-01 00:23:00,76.7,71.5,29.56,SSE,156,0.0,0.0,84,0.00,,,0.00,VWS V14.01,2013-11-01 04:23:00,
2013-11-01 00:24:00,76.7,71.6,29.56,SSE,156,0.0,0.0,84,0.00,,,0.00,VWS V14.01,2013-11-01 04:24:00,
2013-11-01 00:26:00,76.6,71.5,29.56,SSE,156,0.0,0.0,84,0.00,,,0.00,VWS V14.01,2013-11-01 04:26:00,
2013-11-01 00:28:00,76.8,71.7,29.56,SSE,156,0.0,0.0,84,0.00,,,0.00,VWS V14.01,2013-11-01 04:28:00,
2013-11-01 00:30:00,76.8,71.7,29.56,SSE,156,0.0,0.0,84,0.00,,,0.00,VWS V14.01,2013-11-01 04:30:00,
2013-11-01 00:32:00,76.6,71.5,29.56,SSE,156,0.0,0.0,84,0.00,,,0.00,VWS V14.01,2013-11-01 04:32:00,
2013-11-01 00:33:00,76.6,71.5,29.56,SSE,156,0.0,0.0,84,0.00,,,0.00,VWS V14.01,2013-11-01 04:33:00,
2013-11-01 00:34:00,76.5,71.5,29.56,SSE,156,0.0,0.0,85,0.00,,,0.00,VWS V14.01,2013-11-01 04:34:00,
2013-11-01 00:36:00,76.6,71.6,29.56,SSE,156,0.0,0.0,85,0.00,,,0.00,VWS V14.01,2013-11-01 04:36:00,
2013-11-01 00:38:00,76.6,71.7,29.56,SSE,156,0.0,0.0,85,0.00,,,0.00,VWS V14.01,2013-11-01 04:38:00,
2013-11-01 00:40:00,76.6,71.7,29.56,SSE,156,0.0,0.0,85,0.00,,,0.00,VWS V14.01,2013-11-01 04:40:00,
2013-11-01 00:42:00,76.5,71.6,29.56,SSE,156,0.0,0.0,85,0.00,,,0.00,VWS V14.01,2013-11-01 04:42:00,
2013-11-01 00:43:00,76.5,71.6,29.56,SSE,156,0.0,0.0,85,0.00,,,0.00,VWS V14.01,2013-11-01 04:43:00,
2013-11-01 00:44:00,76.4,71.5,29.56,SSE,156,0.0,0.0,85,0.00,,,0.00,VWS V14.01,2013-11-01 04:44:00,
2013-11-01 00:46:00,76.6,71.8,29.56,SSE,156,0.0,0.0,85,0.00,,,0.00,VWS V14.01,2013-11-01 04:46:00,
2013-11-01 00:48:00,76.4,71.5,29.56,SSE,156,0.0,0.0,85,0.00,,,0.00,VWS V14.01,2013-11-01 04:48:00,
2013-11-01 00:50:00,76.5,71.7,29.56,SSE,156,0.0,0.0,85,0.00,,,0.00,VWS V14.01,2013-11-01 04:50:00,
2013-11-01 00:52:00,76.4,71.6,29.56,SSE,156,0.0,0.0,85,0.00,,,0.00,VWS V14.01,2013-11-01 04:52:00,
2013-11-01 00:53:00,76.4,71.6,29.56,SSE,156,0.0,0.0,85,0.00,,,0.00,VWS V14.01,2013-11-01 04:53:00,
2013-11-01 00:54:00,76.4,71.6,29.56,SSE,156,0.0,0.0,85,0.00,,,0.00,VWS V14.01,2013-11-01 04:54:00,
2013-11-01 00:56:00,76.4,71.7,29.56,SSE,156,0.0,0.0,85,0.00,,,0.00,VWS V14.01,2013-11-01 04:56:00,
2013-11-01 00:58:00,76.4,71.7,29.56,SSE,156,0.0,0.0,85,0.00,,,0.00,VWS V14.01,2013-11-01 04:58:00,
2013-11-01 01:00:00,76.4,71.7,29.55,SSE,156,0.0,0.0,86,0.00,,,0.00,VWS V14.01,2013-11-01 05:00:00,
2013-11-01 01:02:00,76.3,71.7,29.55,SSE,156,0.0,0.0,86,0.00,,,0.00,VWS V14.01,2013-11-01 05:02:00,
2013-11-01 01:03:00,76.3,71.7,29.55,SSE,156,0.0,0.0,86,0.00,,,0.00,VWS V14.01,2013-11-01 05:03:00,
2013-11-01 01:04:00,76.4,71.8,29.55,SSE,156,0.0,0.0,86,0.00,,,0.00,VWS V14.01,2013-11-01 05:04:00,
2013-11-01 01:06:00,76.3,71.7,29.56,SSE,156,0.0,0.0,86,0.00,,,0.00,VWS V14.01,2013-11-01 05:06:00,
2013-11-01 01:08:00,76.4,71.7,29.55,SSE,156,0.0,0.0,86,0.00,,,0.00,VWS V14.01,2013-11-01 05:08:00,
2013-11-01 01:10:00,76.3,71.7,29.55,SSE,156,0.0,0.0,86,0.00,,,0.00,VWS V14.01,2013-11-01 05:10:00,
2013-11-01 01:12:00,76.2,71.6,29.55,SSE,156,0.0,0.0,86,0.00,,,0.00,VWS V14.01,2013-11-01 05:12:00,
2013-11-01 01:13:00,76.2,71.6,29.55,SSE,156,0.0,0.0,86,0.00,,,0.00,VWS V14.01,2013-11-01 05:13:00,
2013-11-01 01:14:00,76.3,71.7,29.55,SSE,156,0.0,0.0,86,0.00,,,0.00,VWS V14.01,2013-11-01 05:14:00,
2013-11-01 01:16:00,76.3,71.7,29.55,SSE,156,0.0,0.0,86,0.00,,,0.00,VWS V14.01,2013-11-01 05:16:00,
2013-11-01 01:18:00,76.2,71.6,29.55,SSE,156,0.0,0.0,86,0.00,,,0.00,VWS V14.01,2013-11-01 05:18:00,
2013-11-01 01:20:00,76.3,71.7,29.55,SSE,156,0.0,0.0,86,0.00,,,0.00,VWS V14.01,2013-11-01 05:20:00,
2013-11-01 01:22:00,76.3,71.7,29.55,SSE,156,0.0,0.0,86,0.00,,,0.00,VWS V14.01,2013-11-01 05:22:00,
2013-11-01 01:23:00,76.3,71.7,29.55,SSE,156,0.0,0.0,86,0.00,,,0.00,VWS V14.01,2013-11-01 05:23:00,
2013-11-01 01:24:00,76.4,71.8,29.55,SSE,156,0.0,0.0,86,0.00,,,0.00,VWS V14.01,2013-11-01 05:24:00,
2013-11-01 01:26:00,76.2,71.6,29.55,SSE,156,0.0,0.0,86,0.00,,,0.00,VWS V14.01,2013-11-01 05:26:00,
2013-11-01 01:28:00,76.2,71.6,29.55,SSE,156,0.0,0.0,86,0.00,,,0.00,VWS V14.01,2013-11-01 05:28:00,
2013-11-01 01:30:00,76.3,71.8,29.55,SSE,156,0.0,0.0,86,0.00,,,0.00,VWS V14.01,2013-11-01 05:30:00,
2013-11-01 01:32:00,76.3,71.7,29.55,SSE,156,0.0,0.0,86,0.00,,,0.00,VWS V14.01,2013-11-01 05:32:00,
2013-11-01 01:33:00,76.2,71.6,29.55,SSE,156,0.0,0.0,86,0.00,,,0.00,VWS V14.01,2013-11-01 05:33:00,
2013-11-01 01:34:00,76.3,71.8,29.55,SSE,156,0.0,0.0,86,0.00,,,0.00,VWS V14.01,2013-11-01 05:34:00,
2013-11-01 01:36:00,76.2,71.7,29.55,SSE,156,0.0,0.0,86,0.00,,,0.00,VWS V14.01,2013-11-01 05:36:00,
2013-11-01 01:38:00,76.2,71.7,29.55,SSE,156,0.0,0.0,86,0.00,,,0.00,VWS V14.01,2013-11-01 05:38:00,
2013-11-01 01:40:00,76.2,71.7,29.55,SSE,156,0.0,0.0,86,0.00,,,0.00,VWS V14.01,2013-11-01 05:40:00,
2013-11-01 01:42:00,76.1,71.7,29.55,SSE,156,0.0,0.0,86,0.00,,,0.00,VWS V14.01,2013-11-01 05:42:00,
2013-11-01 01:43:00,76.2,71.7,29.55,SSE,156,0.0,0.0,86,0.00,,,0.00,VWS V14.01,2013-11-01 05:43:00,
2013-11-01 01:44:00,76.0,71.6,29.55,SSE,156,0.0,0.0,86,0.00,,,0.00,VWS V14.01,2013-11-01 05:44:00,
2013-11-01 01:45:00,76.2,71.7,29.55,SSE,156,0.0,0.0,86,0.00,,,0.00,VWS V14.01,2013-11-01 05:45:00,
2013-11-01 01:46:00,76.2,71.8,29.55,SSE,156,0.0,0.0,86,0.00,,,0.00,VWS V14.01,2013-11-01 05:46:00,
2013-11-01 01:48:00,76.1,71.7,29.55,SSE,156,0.0,0.0,86,0.00,,,0.00,VWS V14.01,2013-11-01 05:48:00,
2013-11-01 01:50:00,76.3,71.9,29.54,SSE,156,0.0,0.0,86,0.00,,,0.00,VWS V14.01,2013-11-01 05:50:00,
2013-11-01 01:52:00,76.1,71.7,29.55,SSE,156,0.0,0.0,86,0.00,,,0.00,VWS V14.01,2013-11-01 05:52:00,
2013-11-01 01:54:00,76.0,71.6,29.55,SSE,156,0.0,0.0,86,0.00,,,0.00,VWS V14.01,2013-11-01 05:54:00,
2013-11-01 01:55:00,76.0,71.6,29.55,SSE,156,0.0,0.0,86,0.00,,,0.00,VWS V14.01,2013-11-01 05:55:00,
2013-11-01 01:56:00,76.0,71.7,29.55,SSE,156,0.0,0.0,86,0.00,,,0.00,VWS V14.01,2013-11-01 05:56:00,
2013-11-01 01:58:00,76.0,71.7,29.55,SSE,156,0.0,0.0,86,0.00,,,0.00,VWS V14.01,2013-11-01 05:58:00,
2013-11-01 02:00:00,76.0,71.7,29.55,SSE,156,0.0,0.0,86,0.00,,,0.00,VWS V14.01,2013-11-01 06:00:00,
2013-11-01 02:02:00,75.9,71.6,29.55,SSE,156,0.0,0.0,87,0.00,,,0.00,VWS V14.01,2013-11-01 06:02:00,
2013-11-01 02:04:00,76.0,71.8,29.55,SSE,156,0.0,0.0,87,0.00,,,0.00,VWS V14.01,2013-11-01 06:04:00,
2013-11-01 02:05:00,76.1,71.8,29.55,SSE,156,0.0,0.0,87,0.00,,,0.00,VWS V14.01,2013-11-01 06:05:00,
2013-11-01 02:06:00,76.1,71.9,29.55,SSE,156,0.0,0.0,87,0.00,,,0.00,VWS V14.01,2013-11-01 06:06:00,
2013-11-01 02:08:00,75.9,71.7,29.55,SSE,156,0.0,0.0,87,0.00,,,0.00,VWS V14.01,2013-11-01 06:08:00,
2013-11-01 02:10:00,75.9,71.7,29.55,SSE,156,0.0,0.0,87,0.00,,,0.00,VWS V14.01,2013-11-01 06:10:00,
2013-11-01 02:12:00,76.0,71.8,29.55,SSE,156,0.0,0.0,87,0.00,,,0.00,VWS V14.01,2013-11-01 06:12:00,
2013-11-01 02:14:00,76.0,71.8,29.55,SSE,156,0.0,0.0,87,0.00,,,0.00,VWS V14.01,2013-11-01 06:14:00,
2013-11-01 02:15:00,76.0,71.8,29.55,SSE,156,0.0,0.0,87,0.00,,,0.00,VWS V14.01,2013-11-01 06:15:00,
2013-11-01 02:16:00,75.9,71.7,29.55,SSE,156,0.0,0.0,87,0.00,,,0.00,VWS V14.01,2013-11-01 06:16:00,
2013-11-01 02:18:00,75.8,71.6,29.54,SSE,156,0.0,0.0,87,0.00,,,0.00,VWS V14.01,2013-11-01 06:18:00,
2013-11-01 02:20:00,75.8,71.6,29.54,SSE,156,0.0,0.0,87,0.00,,,0.00,VWS V14.01,2013-11-01 06:20:00,
2013-11-01 02:22:00,75.8,71.7,29.54,SSE,156,0.0,0.0,87,0.00,,,0.00,VWS V14.01,2013-11-01 06:22:00,
2013-11-01 02:24:00,75.7,71.6,29.54,SSE,156,0.0,0.0,87,0.00,,,0.00,VWS V14.01,2013-11-01 06:24:00,
2013-11-01 02:25:00,75.8,71.7,29.54,SSE,156,0.0,0.0,87,0.00,,,0.00,VWS V14.01,2013-11-01 06:25:00,
2013-11-01 02:26:00,75.8,71.7,29.54,SSE,156,0.0,0.0,87,0.00,,,0.00,VWS V14.01,2013-11-01 06:26:00,
2013-11-01 02:28:00,75.8,71.7,29.54,SSE,156,0.0,0.0,87,0.00,,,0.00,VWS V14.01,2013-11-01 06:28:00,
2013-11-01 02:30:00,75.8,71.7,29.54,SSE,156,0.0,0.0,87,0.00,,,0.00,VWS V14.01,2013-11-01 06:30:00,
2013-11-01 02:32:00,75.5,71.5,29.54,SSE,156,0.0,0.0,87,0.00,,,0.00,VWS V14.01,2013-11-01 06:32:00,
2013-11-01 02:34:00,75.6,71.6,29.54,SSE,156,0.0,0.0,87,0.00,,,0.00,VWS V14.01,2013-11-01 06:34:00,
2013-11-01 02:35:00,75.7,71.7,29.54,SSE,156,0.0,0.0,87,0.00,,,0.00,VWS V14.01,2013-11-01 06:35:00,
2013-11-01 02:36:00,75.5,71.5,29.54,SSE,156,0.0,0.0,87,0.00,,,0.00,VWS V14.01,2013-11-01 06:36:00,
2013-11-01 02:38:00,75.5,71.5,29.54,SSE,156,0.0,0.0,87,0.00,,,0.00,VWS V14.01,2013-11-01 06:38:00,
2013-11-01 02:40:00,75.7,71.7,29.54,SSE,156,0.0,0.0,87,0.00,,,0.00,VWS V14.01,2013-11-01 06:40:00,
2013-11-01 02:42:00,75.4,71.4,29.53,SSE,156,0.0,0.0,88,0.00,,,0.00,VWS V14.01,2013-11-01 06:42:00,
2013-11-01 02:44:00,75.4,71.5,29.54,SSE,156,0.0,0.0,88,0.00,,,0.00,VWS V14.01,2013-11-01 06:44:00,
2013-11-01 02:45:00,75.6,71.7,29.54,SSE,156,0.0,0.0,88,0.00,,,0.00,VWS V14.01,2013-11-01 06:45:00,
2013-11-01 02:46:00,75.4,71.5,29.54,SSE,156,0.0,0.0,88,0.00,,,0.00,VWS V14.01,2013-11-01 06:46:00,
2013-11-01 02:48:00,75.5,71.6,29.53,SSE,156,0.0,0.0,88,0.00,,,0.00,VWS V14.01,2013-11-01 06:48:00,
2013-11-01 02:50:00,75.4,71.5,29.53,SSE,156,0.0,0.0,88,0.00,,,0.00,VWS V14.01,2013-11-01 06:50:00,
2013-11-01 02:52:00,75.4,71.5,29.53,SSE,156,0.0,0.0,88,0.00,,,0.00,VWS V14.01,2013-11-01 06:52:00,
2013-11-01 02:54:00,75.4,71.6,29.53,SSE,156,0.0,0.0,88,0.00,,,0.00,VWS V14.01,2013-11-01 06:54:00,
2013-11-01 02:55:00,75.4,71.6,29.53,SSE,156,0.0,0.0,88,0.00,,,0.00,VWS V14.01,2013-11-01 06:55:00,
2013-11-01 02:56:00,75.3,71.5,29.53,SSE,156,0.0,0.0,88,0.00,,,0.00,VWS V14.01,2013-11-01 06:56:00,
2013-11-01 02:58:00,75.3,71.5,29.53,SSE,156,0.0,0.0,88,0.00,,,0.00,VWS V14.01,2013-11-01 06:58:00,
2013-11-01 03:00:00,75.2,71.4,29.53,SSE,156,0.0,0.0,88,0.00,,,0.00,VWS V14.01,2013-11-01 07:00:00,
2013-11-01 03:02:00,75.3,71.6,29.53,SSE,156,0.0,0.0,88,0.00,,,0.00,VWS V14.01,2013-11-01 07:02:00,
2013-11-01 03:04:00,75.3,71.7,29.53,SSE,156,0.0,0.0,88,0.00,,,0.00,VWS V14.01,2013-11-01 07:04:00,
2013-11-01 03:05:00,75.2,71.5,29.53,SSE,156,0.0,0.0,88,0.00,,,0.00,VWS V14.01,2013-11-01 07:05:00,
2013-11-01 03:06:00,75.1,71.5,29.53,SSE,156,0.0,0.0,89,0.00,,,0.00,VWS V14.01,2013-11-01 07:06:00,
2013-11-01 03:08:00,75.1,71.5,29.53,SSE,156,0.0,0.0,89,0.00,,,0.00,VWS V14.01,2013-11-01 07:08:00,
2013-11-01 03:10:00,75.1,71.6,29.53,SSE,156,0.0,0.0,89,0.00,,,0.00,VWS V14.01,2013-11-01 07:10:00,
2013-11-01 03:12:00,75.0,71.5,29.53,SSE,156,0.0,0.0,89,0.00,,,0.00,VWS V14.01,2013-11-01 07:12:00,
2013-11-01 03:14:00,75.0,71.5,29.53,SSE,156,0.0,0.0,89,0.00,,,0.00,VWS V14.01,2013-11-01 07:14:00,
2013-11-01 03:15:00,75.0,71.5,29.53,SSE,156,0.0,0.0,89,0.00,,,0.00,VWS V14.01,2013-11-01 07:15:00,
2013-11-01 03:16:00,75.0,71.5,29.53,SSE,156,0.0,0.0,89,0.00,,,0.00,VWS V14.01,2013-11-01 07:16:00,
2013-11-01 03:18:00,75.0,71.5,29.53,SSE,156,0.0,0.0,89,0.00,,,0.00,VWS V14.01,2013-11-01 07:18:00,
2013-11-01 03:19:00,75.0,71.5,29.53,SSE,156,0.0,0.0,89,0.00,,,0.00,VWS V14.01,2013-11-01 07:19:00,
2013-11-01 03:20:00,74.9,71.5,29.53,SSE,156,0.0,0.0,89,0.00,,,0.00,VWS V14.01,2013-11-01 07:20:00,
2013-11-01 03:22:00,75.0,71.6,29.53,SSE,156,0.0,0.0,89,0.00,,,0.00,VWS V14.01,2013-11-01 07:22:00,
2013-11-01 03:24:00,75.0,71.6,29.53,SSE,156,0.0,0.0,89,0.00,,,0.00,VWS V14.01,2013-11-01 07:24:00,
2013-11-01 03:26:00,74.9,71.5,29.53,SSE,156,0.0,0.0,89,0.00,,,0.00,VWS V14.01,2013-11-01 07:26:00,
2013-11-01 03:28:00,75.0,71.6,29.53,SSE,156,0.0,0.0,89,0.00,,,0.00,VWS V14.01,2013-11-01 07:28:00,
2013-11-01 03:29:00,74.9,71.5,29.53,SSE,156,0.0,0.0,89,0.00,,,0.00,VWS V14.01,2013-11-01 07:29:00,
2013-11-01 03:30:00,75.0,71.6,29.53,SSE,156,0.0,0.0,89,0.00,,,0.00,VWS V14.01,2013-11-01 07:30:00,
2013-11-01 03:32:00,74.9,71.5,29.53,SSE,156,0.0,0.0,89,0.00,,,0.00,VWS V14.01,2013-11-01 07:32:00,
2013-11-01 03:34:00,75.0,71.7,29.53,SSE,156,0.0,0.0,89,0.00,,,0.00,VWS V14.01,2013-11-01 07:34:00,
2013-11-01 03:36:00,75.5,71.5,29.54,SSE,156,0.0,0.0,87,0.00,,,0.00,VWS V14.01,2013-11-01 07:36:00,
2013-11-01 03:38:00,75.5,71.5,29.54,SSE,156,0.0,0.0,87,0.00,,,0.00,VWS V14.01,2013-11-01 07:38:00,
2013-11-01 03:39:00,74.9,71.7,29.53,SSE,156,0.0,0.0,90,0.00,,,0.00,VWS V14.01,2013-11-01 07:39:00,
2013-11-01 03:40:00,75.4,71.4,29.54,SSE,156,0.0,0.0,87,0.00,,,0.00,VWS V14.01,2013-11-01 07:40:00,
2013-11-01 03:42:00,75.4,71.4,29.53,SSE,156,0.0,0.0,88,0.00,,,0.00,VWS V14.01,2013-11-01 07:42:00,
2013-11-01 03:44:00,75.4,71.5,29.54,SSE,156,0.0,0.0,88,0.00,,,0.00,VWS V14.01,2013-11-01 07:44:00,
2013-11-01 03:45:00,74.9,71.8,29.53,SSE,156,0.0,0.0,90,0.00,,,0.00,VWS V14.01,2013-11-01 07:45:00,
2013-11-01 03:46:00,75.4,71.5,29.54,SSE,156,0.0,0.0,88,0.00,,,0.00,VWS V14.01,2013-11-01 07:46:00,
2013-11-01 03:48:00,75.5,71.6,29.53,SSE,156,0.0,0.0,88,0.00,,,0.00,VWS V14.01,2013-11-01 07:48:00,
2013-11-01 03:50:00,75.0,71.9,29.53,SSE,156,0.0,0.0,90,0.00,,,0.00,VWS V14.01,2013-11-01 07:50:00,
2013-11-01 03:52:00,75.4,71.5,29.53,SSE,156,0.0,0.0,88,0.00,,,0.00,VWS V14.01,2013-11-01 07:52:00,
2013-11-01 03:54:00,75.4,71.6,29.53,SSE,156,0.0,0.0,88,0.00,,,0.00,VWS V14.01,2013-11-01 07:54:00,
2013-11-01 03:55:00,75.0,72.0,29.53,SSE,156,0.0,0.0,90,0.00,,,0.00,VWS V14.01,2013-11-01 07:55:00,
2013-11-01 03:56:00,75.3,71.5,29.53,SSE,156,0.0,0.0,88,0.00,,,0.00,VWS V14.01,2013-11-01 07:56:00,
2013-11-01 03:58:00,75.3,71.5,29.53,SSE,156,0.0,0.0,88,0.00,,,0.00,VWS V14.01,2013-11-01 07:58:00,
2013-11-01 04:00:00,75.2,71.5,29.53,SSE,156,0.0,0.0,88,0.00,,,0.00,VWS V14.01,2013-11-01 08:00:00,
2013-11-01 04:02:00,75.3,72.3,29.53,SSE,156,0.0,0.0,90,0.00,,,0.00,VWS V14.01,2013-11-01 08:02:00,
2013-11-01 04:04:00,75.3,71.7,29.53,SSE,156,0.0,0.0,88,0.00,,,0.00,VWS V14.01,2013-11-01 08:04:00,
2013-11-01 04:06:00,75.1,71.5,29.53,SSE,156,0.0,0.0,89,0.00,,,0.00,VWS V14.01,2013-11-01 08:06:00,
2013-11-01 04:07:00,75.2,72.2,29.52,SSE,156,0.0,0.0,90,0.00,,,0.00,VWS V14.01,2013-11-01 08:07:00,
2013-11-01 04:08:00,75.1,71.5,29.53,SSE,156,0.0,0.0,89,0.00,,,0.00,VWS V14.01,2013-11-01 08:08:00,
2013-11-01 04:10:00,75.1,71.5,29.53,SSE,156,0.0,0.0,89,0.00,,,0.00,VWS V14.01,2013-11-01 08:10:00,
2013-11-01 04:12:00,75.2,72.2,29.52,SSE,156,0.0,0.0,90,0.00,,,0.00,VWS V14.01,2013-11-01 08:12:00,
2013-11-01 04:14:00,75.0,71.5,29.53,SSE,156,0.0,0.0,89,0.00,,,0.00,VWS V14.01,2013-11-01 08:14:00,
2013-11-01 04:16:00,75.0,71.5,29.53,SSE,156,0.0,0.0,89,0.00,,,0.00,VWS V14.01,2013-11-01 08:16:00,
2013-11-01 04:17:00,75.2,72.2,29.52,SSE,156,0.0,0.0,90,0.00,,,0.00,VWS V14.01,2013-11-01 08:17:00,
2013-11-01 04:18:00,75.0,71.5,29.53,SSE,156,0.0,0.0,89,0.00,,,0.00,VWS V14.01,2013-11-01 08:18:00,
2013-11-01 04:20:00,74.9,71.5,29.53,SSE,156,0.0,0.0,89,0.00,,,0.00,VWS V14.01,2013-11-01 08:20:00,
2013-11-01 04:22:00,75.0,72.0,29.52,SSE,156,0.0,0.0,90,0.00,,,0.00,VWS V14.01,2013-11-01 08:22:00,
2013-11-01 04:24:00,75.0,71.6,29.53,SSE,156,0.0,0.0,89,0.00,,,0.00,VWS V14.01,2013-11-01 08:24:00,
2013-11-01 04:26:00,74.9,71.5,29.53,SSE,156,0.0,0.0,89,0.00,,,0.00,VWS V14.01,2013-11-01 08:26:00,
2013-11-01 04:27:00,75.1,72.1,29.52,SSE,156,0.0,0.0,90,0.00,,,0.00,VWS V14.01,2013-11-01 08:27:00,
2013-11-01 04:28:00,75.0,71.6,29.53,SSE,156,0.0,0.0,89,0.00,,,0.00,VWS V14.01,2013-11-01 08:28:00,
2013-11-01 04:30:00,75.0,71.6,29.53,SSE,156,0.0,0.0,89,0.00,,,0.00,VWS V14.01,2013-11-01 08:30:00,
2013-11-01 04:32:00,75.1,72.1,29.52,SSE,156,0.0,0.0,90,0.00,,,0.00,VWS V14.01,2013-11-01 08:32:00,
2013-11-01 04:34:00,75.0,71.7,29.53,SSE,156,0.0,0.0,89,0.00,,,0.00,VWS V14.01,2013-11-01 08:34:00,
2013-11-01 04:36:00,75.0,71.7,29.53,SSE,156,0.0,0.0,90,0.00,,,0.00,VWS V14.01,2013-11-01 08:36:00,
2013-11-01 04:37:00,75.0,72.1,29.52,SSE,156,0.0,0.0,91,0.00,,,0.00,VWS V14.01,2013-11-01 08:37:00,
2013-11-01 04:38:00,75.0,71.8,29.53,SSE,156,0.0,0.0,90,0.00,,,0.00,VWS V14.01,2013-11-01 08:38:00,
2013-11-01 04:40:00,75.0,71.8,29.53,SSE,156,0.0,0.0,90,0.00,,,0.00,VWS V14.01,2013-11-01 08:40:00,
2013-11-01 04:42:00,75.0,72.1,29.52,SSE,156,0.0,0.0,91,0.00,,,0.00,VWS V14.01,2013-11-01 08:42:00,
2013-11-01 04:44:00,74.9,71.8,29.53,SSE,156,0.0,0.0,90,0.00,,,0.00,VWS V14.01,2013-11-01 08:44:00,
2013-11-01 04:46:00,75.1,72.0,29.53,SSE,156,0.0,0.0,90,0.00,,,0.00,VWS V14.01,2013-11-01 08:46:00,
2013-11-01 04:47:00,74.8,71.9,29.52,SSE,156,0.0,0.0,91,0.00,,,0.00,VWS V14.01,2013-11-01 08:47:00,
2013-11-01 04:48:00,74.9,71.8,29.53,SSE,156,0.0,0.0,90,0.00,,,0.00,VWS V14.01,2013-11-01 08:48:00,
2013-11-01 04:50:00,75.0,71.9,29.53,SSE,156,0.0,0.0,90,0.00,,,0.00,VWS V14.01,2013-11-01 08:50:00,
2013-11-01 04:52:00,74.9,72.0,29.52,SSE,156,0.0,0.0,91,0.00,,,0.00,VWS V14.01,2013-11-01 08:52:00,
2013-11-01 04:54:00,75.0,72.0,29.53,SSE,156,0.0,0.0,90,0.00,,,0.00,VWS V14.01,2013-11-01 08:54:00,
2013-11-01 04:56:00,75.1,72.1,29.53,SSE,156,0.0,0.0,90,0.00,,,0.00,VWS V14.01,2013-11-01 08:56:00,
2013-11-01 04:57:00,74.8,71.9,29.52,SSE,156,0.0,0.0,91,0.00,,,0.00,VWS V14.01,2013-11-01 08:57:00,
2013-11-01 04:58:00,75.1,72.1,29.53,SSE,156,0.0,0.0,90,0.00,,,0.00,VWS V14.01,2013-11-01 08:58:00,
2013-11-01 05:02:00,74.8,71.8,29.52,SSE,156,0.0,0.0,90,0.00,,,0.00,VWS V14.01,2013-11-01 09:02:00,
2013-11-01 05:04:00,75.1,72.1,29.53,SSE,156,0.0,0.0,90,0.00,,,0.00,VWS V14.01,2013-11-01 09:04:00,
2013-11-01 05:06:00,75.2,72.2,29.52,SSE,156,0.0,0.0,90,0.00,,,0.00,VWS V14.01,2013-11-01 09:06:00,
2013-11-01 05:07:00,74.7,71.8,29.52,SSE,156,0.0,0.0,91,0.00,,,0.00,VWS V14.01,2013-11-01 09:07:00,
2013-11-01 05:08:00,75.1,72.1,29.53,SSE,156,0.0,0.0,90,0.00,,,0.00,VWS V14.01,2013-11-01 09:08:00,
2013-11-01 05:10:00,75.1,72.1,29.52,SSE,156,0.0,0.0,90,0.00,,,0.00,VWS V14.01,2013-11-01 09:10:00,
2013-11-01 05:12:00,74.7,71.8,29.52,SSE,156,0.0,0.0,91,0.00,,,0.00,VWS V14.01,2013-11-01 09:12:00,
2013-11-01 05:14:00,75.1,72.1,29.52,SSE,156,0.0,0.0,90,0.00,,,0.00,VWS V14.01,2013-11-01 09:14:00,
2013-11-01 05:16:00,75.1,72.1,29.52,SSE,156,0.0,0.0,90,0.00,,,0.00,VWS V14.01,2013-11-01 09:16:00,
2013-11-01 05:17:00,74.7,71.8,29.52,SSE,156,0.0,0.0,91,0.00,,,0.00,VWS V14.01,2013-11-01 09:17:00,
2013-11-01 05:18:00,75.0,72.0,29.52,SSE,156,0.0,0.0,90,0.00,,,0.00,VWS V14.01,2013-11-01 09:18:00,
2013-11-01 05:20:00,75.2,72.2,29.52,SSE,156,0.0,0.0,90,0.00,,,0.00,VWS V14.01,2013-11-01 09:20:00,
2013-11-01 05:22:00,74.5,71.6,29.52,SSE,156,0.0,0.0,91,0.00,,,0.00,VWS V14.01,2013-11-01 09:22:00,
2013-11-01 05:24:00,75.1,72.1,29.52,SSE,156,0.0,0.0,90,0.00,,,0.00,VWS V14.01,2013-11-01 09:24:00,
2013-11-01 05:26:00,75.1,72.1,29.52,SSE,156,0.0,0.0,90,0.00,,,0.00,VWS V14.01,2013-11-01 09:26:00,
2013-11-01 05:27:00,74.4,71.5,29.52,SSE,156,0.0,0.0,91,0.00,,,0.00,VWS V14.01,2013-11-01 09:27:00,
2013-11-01 05:28:00,75.1,72.1,29.52,SSE,156,0.0,0.0,90,0.00,,,0.00,VWS V14.01,2013-11-01 09:28:00,
2013-11-01 05:30:00,75.0,72.0,29.52,SSE,156,0.0,0.0,90,0.00,,,0.00,VWS V14.01,2013-11-01 09:30:00,
2013-11-01 05:32:00,74.4,71.5,29.52,SSE,156,0.0,0.0,91,0.00,,,0.00,VWS V14.01,2013-11-01 09:32:00,
2013-11-01 05:34:00,75.1,72.2,29.52,SSE,156,0.0,0.0,91,0.00,,,0.00,VWS V14.01,2013-11-01 09:34:00,
2013-11-01 05:36:00,75.0,72.1,29.52,SSE,156,0.0,0.0,91,0.00,,,0.00,VWS V14.01,2013-11-01 09:36:00,
2013-11-01 05:37:00,74.3,71.4,29.53,SSE,156,0.0,0.0,91,0.00,,,0.00,VWS V14.01,2013-11-01 09:37:00,
2013-11-01 05:38:00,75.0,72.1,29.52,SSE,156,0.0,0.0,91,0.00,,,0.00,VWS V14.01,2013-11-01 09:38:00,
2013-11-01 05:40:00,74.9,72.0,29.52,SSE,156,0.0,0.0,91,0.00,,,0.00,VWS V14.01,2013-11-01 09:40:00,
2013-11-01 05:42:00,74.3,71.4,29.53,SSE,156,0.0,0.0,91,0.00,,,0.00,VWS V14.01,2013-11-01 09:42:00,
2013-11-01 05:44:00,74.9,72.0,29.52,SSE,156,0.0,0.0,91,0.00,,,0.00,VWS V14.01,2013-11-01 09:44:00,
2013-11-01 05:46:00,74.8,71.9,29.52,SSE,156,0.0,0.0,91,0.00,,,0.00,VWS V14.01,2013-11-01 09:46:00,
2013-11-01 05:47:00,74.2,71.3,29.53,SSE,156,0.0,0.0,91,0.00,,,0.00,VWS V14.01,2013-11-01 09:47:00,
2013-11-01 05:48:00,74.8,71.9,29.52,SSE,156,0.0,0.0,91,0.00,,,0.00,VWS V14.01,2013-11-01 09:48:00,
2013-11-01 05:50:00,74.8,71.9,29.52,SSE,156,0.0,0.0,91,0.00,,,0.00,VWS V14.01,2013-11-01 09:50:00,
2013-11-01 05:52:00,74.1,71.3,29.53,SSE,156,0.0,0.0,91,0.00,,,0.00,VWS V14.01,2013-11-01 09:52:00,
2013-11-01 05:54:00,74.8,71.9,29.52,SSE,156,0.0,0.0,91,0.00,,,0.00,VWS V14.01,2013-11-01 09:54:00,
2013-11-01 05:56:00,74.8,71.9,29.52,SSE,156,0.0,0.0,91,0.00,,,0.00,VWS V14.01,2013-11-01 09:56:00,
2013-11-01 05:57:00,74.1,71.3,29.53,SSE,156,0.0,0.0,91,0.00,,,0.00,VWS V14.01,2013-11-01 09:57:00,
2013-11-01 05:58:00,74.8,71.8,29.52,SSE,156,0.0,0.0,90,0.00,,,0.00,VWS V14.01,2013-11-01 09:58:00,
2013-11-01 06:00:00,74.8,71.8,29.52,SSE,156,0.0,0.0,90,0.00,,,0.00,VWS V14.01,2013-11-01 10:00:00,
2013-11-01 06:02:00,74.1,71.4,29.53,SSE,156,0.0,0.0,91,0.00,,,0.00,VWS V14.01,2013-11-01 10:02:00,
2013-11-01 06:04:00,74.9,72.0,29.52,SSE,156,0.0,0.0,91,0.00,,,0.00,VWS V14.01,2013-11-01 10:04:00,
2013-11-01 06:06:00,74.8,71.9,29.52,SSE,156,0.0,0.0,91,0.00,,,0.00,VWS V14.01,2013-11-01 10:06:00,
2013-11-01 06:07:00,74.0,71.3,29.53,SSE,156,0.0,0.0,91,0.00,,,0.00,VWS V14.01,2013-11-01 10:07:00,
2013-11-01 06:08:00,74.8,71.9,29.52,SSE,156,0.0,0.0,91,0.00,,,0.00,VWS V14.01,2013-11-01 10:08:00,
2013-11-01 06:10:00,74.8,71.9,29.52,SSE,156,0.0,0.0,91,0.00,,,0.00,VWS V14.01,2013-11-01 10:10:00,
2013-11-01 06:12:00,74.1,71.4,29.53,SSE,156,0.0,0.0,91,0.00,,,0.00,VWS V14.01,2013-11-01 10:12:00,
2013-11-01 06:14:00,74.6,71.7,29.52,SSE,156,0.0,0.0,91,0.00,,,0.00,VWS V14.01,2013-11-01 10:14:00,
2013-11-01 06:16:00,74.7,71.8,29.52,SSE,156,0.0,0.0,91,0.00,,,0.00,VWS V14.01,2013-11-01 10:16:00,
2013-11-01 06:17:00,74.1,71.5,29.53,SSE,156,0.0,0.0,92,0.00,,,0.00,VWS V14.01,2013-11-01 10:17:00,
2013-11-01 06:18:00,74.5,71.6,29.52,SSE,156,0.0,0.0,91,0.00,,,0.00,VWS V14.01,2013-11-01 10:18:00,
2013-11-01 06:20:00,74.6,71.7,29.52,SSE,156,0.0,0.0,91,0.00,,,0.00,VWS V14.01,2013-11-01 10:20:00,
2013-11-01 06:22:00,74.0,71.4,29.53,SSE,156,0.0,0.0,92,0.00,,,0.00,VWS V14.01,2013-11-01 10:22:00,
2013-11-01 06:24:00,74.5,71.6,29.52,SSE,156,0.0,0.0,91,0.00,,,0.00,VWS V14.01,2013-11-01 10:24:00,
2013-11-01 06:26:00,74.5,71.6,29.52,SSE,156,0.0,0.0,91,0.00,,,0.00,VWS V14.01,2013-11-01 10:26:00,
2013-11-01 06:27:00,74.1,71.5,29.53,SSE,156,0.0,0.0,92,0.00,,,0.00,VWS V14.01,2013-11-01 10:27:00,
2013-11-01 06:28:00,74.4,71.5,29.52,SSE,156,0.0,0.0,91,0.00,,,0.00,VWS V14.01,2013-11-01 10:28:00,
2013-11-01 06:30:00,74.4,71.5,29.52,SSE,156,0.0,0.0,91,0.00,,,0.00,VWS V14.01,2013-11-01 10:30:00,
2013-11-01 06:32:00,73.9,71.3,29.53,SSE,156,0.0,0.0,92,0.00,,,0.00,VWS V14.01,2013-11-01 10:32:00,
2013-11-01 06:34:00,74.3,71.4,29.52,SSE,156,0.0,0.0,91,0.00,,,0.00,VWS V14.01,2013-11-01 10:34:00,
2013-11-01 06:36:00,74.4,71.5,29.53,SSE,156,0.0,0.0,91,0.00,,,0.00,VWS V14.01,2013-11-01 10:36:00,
2013-11-01 06:37:00,73.8,71.2,29.53,SSE,156,0.0,0.0,92,0.00,,,0.00,VWS V14.01,2013-11-01 10:37:00,
2013-11-01 06:38:00,74.3,71.4,29.53,SSE,156,0.0,0.0,91,0.00,,,0.00,VWS V14.01,2013-11-01 10:38:00,
2013-11-01 06:40:00,74.4,71.5,29.53,SSE,156,0.0,0.0,91,0.00,,,0.00,VWS V14.01,2013-11-01 10:40:00,
2013-11-01 06:42:00,73.8,71.1,29.53,SSE,156,0.0,0.0,91,0.00,,,0.00,VWS V14.01,2013-11-01 10:42:00,
2013-11-01 06:44:00,74.3,71.4,29.53,SSE,156,0.0,0.0,91,0.00,,,0.00,VWS V14.01,2013-11-01 10:44:00,
2013-11-01 06:46:00,74.2,71.3,29.53,SSE,156,0.0,0.0,91,0.00,,,0.00,VWS V14.01,2013-11-01 10:46:00,
2013-11-01 06:47:00,73.6,71.0,29.53,SSE,156,0.0,0.0,92,0.00,,,0.00,VWS V14.01,2013-11-01 10:47:00,
2013-11-01 06:48:00,74.1,71.2,29.53,SSE,156,0.0,0.0,91,0.00,,,0.00,VWS V14.01,2013-11-01 10:48:00,
2013-11-01 06:50:00,74.3,71.4,29.53,SSE,156,0.0,0.0,91,0.00,,,0.00,VWS V14.01,2013-11-01 10:50:00,
2013-11-01 06:52:00,73.6,71.0,29.53,SSE,156,0.0,0.0,92,0.00,,,0.00,VWS V14.01,2013-11-01 10:52:00,
2013-11-01 06:54:00,74.1,71.3,29.53,SSE,156,0.0,0.0,91,0.00,,,0.00,VWS V14.01,2013-11-01 10:54:00,
2013-11-01 06:56:00,74.1,71.3,29.53,SSE,156,0.0,0.0,91,0.00,,,0.00,VWS V14.01,2013-11-01 10:56:00,
2013-11-01 06:57:00,73.5,70.9,29.53,SSE,156,0.0,0.0,92,0.00,,,0.00,VWS V14.01,2013-11-01 10:57:00,
2013-11-01 06:58:00,74.2,71.4,29.53,SSE,156,0.0,0.0,91,0.00,,,0.00,VWS V14.01,2013-11-01 10:58:00,
2013-11-01 07:00:00,74.1,71.3,29.53,SSE,156,0.0,0.0,91,0.00,,,0.00,VWS V14.01,2013-11-01 11:00:00,
2013-11-01 07:02:00,73.3,70.7,29.53,SSE,156,0.0,0.0,92,0.00,,,0.00,VWS V14.01,2013-11-01 11:02:00,
2013-11-01 07:04:00,74.0,71.3,29.53,SSE,156,0.0,0.0,91,0.00,,,0.00,VWS V14.01,2013-11-01 11:04:00,
2013-11-01 07:06:00,74.0,71.3,29.53,SSE,156,0.0,0.0,91,0.00,,,0.00,VWS V14.01,2013-11-01 11:06:00,
2013-11-01 07:07:00,73.2,70.6,29.53,SSE,156,0.0,0.0,92,0.00,,,0.00,VWS V14.01,2013-11-01 11:07:00,
2013-11-01 07:08:00,74.1,71.4,29.53,SSE,156,0.0,0.0,91,0.00,,,0.00,VWS V14.01,2013-11-01 11:08:00,
2013-11-01 07:10:00,74.0,71.3,29.53,SSE,156,0.0,0.0,91,0.00,,,0.00,VWS V14.01,2013-11-01 11:10:00,
2013-11-01 07:12:00,73.0,70.4,29.53,SSE,156,0.0,0.0,92,0.00,,,0.00,VWS V14.01,2013-11-01 11:12:00,
2013-11-01 07:14:00,74.0,71.3,29.53,SSE,156,0.0,0.0,91,0.00,,,0.00,VWS V14.01,2013-11-01 11:14:00,
2013-11-01 07:16:00,74.0,71.3,29.53,SSE,156,0.0,0.0,91,0.00,,,0.00,VWS V14.01,2013-11-01 11:16:00,
2013-11-01 07:17:00,73.0,70.4,29.53,SSE,156,0.0,0.0,92,0.00,,,0.00,VWS V14.01,2013-11-01 11:17:00,
2013-11-01 07:18:00,74.1,71.5,29.53,SSE,156,0.0,0.0,92,0.00,,,0.00,VWS V14.01,2013-11-01 11:18:00,
2013-11-01 07:20:00,74.0,71.3,29.53,SSE,156,0.0,0.0,91,0.00,,,0.00,VWS V14.01,2013-11-01 11:20:00,
2013-11-01 07:22:00,73.1,70.5,29.53,SSE,156,0.0,0.0,92,0.00,,,0.00,VWS V14.01,2013-11-01 11:22:00,
2013-11-01 07:24:00,74.0,71.4,29.53,SSE,156,0.0,0.0,92,0.00,,,0.00,VWS V14.01,2013-11-01 11:24:00,
2013-11-01 07:26:00,74.1,71.5,29.53,SSE,156,0.0,0.0,92,0.00,,,0.00,VWS V14.01,2013-11-01 11:26:00,
2013-11-01 07:27:00,73.0,70.5,29.53,SSE,156,0.0,0.0,92,0.00,,,0.00,VWS V14.01,2013-11-01 11:27:00,
2013-11-01 07:28:00,74.2,71.6,29.53,SSE,156,0.0,0.0,92,0.00,,,0.00,VWS V14.01,2013-11-01 11:28:00,
2013-11-01 07:30:00,73.9,71.3,29.53,SSE,156,0.0,0.0,92,0.00,,,0.00,VWS V14.01,2013-11-01 11:30:00,
2013-11-01 07:32:00,73.0,70.5,29.52,SSE,156,0.0,0.0,92,0.00,,,0.00,VWS V14.01,2013-11-01 11:32:00,
2013-11-01 07:34:00,74.1,71.5,29.53,SSE,156,0.0,0.0,92,0.00,,,0.00,VWS V14.01,2013-11-01 11:34:00,
2013-11-01 07:36:00,73.8,71.2,29.53,SSE,156,0.0,0.0,92,0.00,,,0.00,VWS V14.01,2013-11-01 11:36:00,
2013-11-01 07:37:00,72.9,70.5,29.52,SSE,156,0.0,0.0,92,0.00,,,0.00,VWS V14.01,2013-11-01 11:37:00,
2013-11-01 07:38:00,73.8,71.1,29.53,SSE,156,0.0,0.0,91,0.00,,,0.00,VWS V14.01,2013-11-01 11:38:00,
2013-11-01 07:40:00,73.9,71.2,29.53,SSE,156,0.0,0.0,91,0.00,,,0.00,VWS V14.01,2013-11-01 11:40:00,
2013-11-01 07:41:00,73.0,70.6,29.53,SSE,156,0.0,0.0,92,0.00,,,0.00,VWS V14.01,2013-11-01 11:41:00,
2013-11-01 07:42:00,73.7,71.0,29.53,SSE,156,0.0,0.0,91,0.00,,,0.00,VWS V14.01,2013-11-01 11:42:00,
2013-11-01 07:44:00,73.7,71.1,29.53,SSE,156,0.0,0.0,92,0.00,,,0.00,VWS V14.01,2013-11-01 11:44:00,
2013-11-01 07:46:00,73.0,70.7,29.52,SSE,156,0.0,0.0,92,0.00,,,0.00,VWS V14.01,2013-11-01 11:46:00,
2013-11-01 07:48:00,73.4,70.8,29.53,SSE,156,0.0,0.0,92,0.00,,,0.00,VWS V14.01,2013-11-01 11:48:00,
2013-11-01 07:50:00,73.4,70.8,29.53,SSE,156,0.0,0.0,92,0.00,,,0.00,VWS V14.01,2013-11-01 11:50:00,
2013-11-01 07:51:00,73.0,70.7,29.53,SSE,156,0.0,0.0,92,0.00,,,0.00,VWS V14.01,2013-11-01 11:51:00,
2013-11-01 07:52:00,73.4,70.8,29.53,SSE,156,0.0,0.0,92,0.00,,,0.00,VWS V14.01,2013-11-01 11:52:00,
2013-11-01 07:54:00,73.6,71.0,29.53,SSE,156,0.0,0.0,92,0.00,,,0.00,VWS V14.01,2013-11-01 11:54:00,
2013-11-01 07:56:00,73.0,70.8,29.52,SSE,156,0.0,0.0,93,0.00,,,0.00,VWS V14.01,2013-11-01 11:56:00,
2013-11-01 07:58:00,73.3,70.7,29.53,SSE,156,0.0,0.0,92,0.00,,,0.00,VWS V14.01,2013-11-01 11:58:00,
2013-11-01 08:00:00,73.3,70.7,29.53,SSE,156,0.0,0.0,92,0.00,,,0.00,VWS V14.01,2013-11-01 12:00:00,
2013-11-01 08:02:00,73.2,70.6,29.53,SSE,156,0.0,0.0,92,0.00,,,0.00,VWS V14.01,2013-11-01 12:02:00,
2013-11-01 08:03:00,72.7,70.5,29.53,SSE,156,0.0,0.0,93,0.00,,,0.00,VWS V14.01,2013-11-01 12:03:00,
2013-11-01 08:04:00,73.2,70.6,29.53,SSE,156,0.0,0.0,92,0.00,,,0.00,VWS V14.01,2013-11-01 12:04:00,
2013-11-01 08:06:00,73.1,70.5,29.53,SSE,156,0.0,0.0,92,0.00,,,0.00,VWS V14.01,2013-11-01 12:06:00,
2013-11-01 08:08:00,72.9,70.7,29.53,SSE,156,0.0,0.0,93,0.00,,,0.00,VWS V14.01,2013-11-01 12:08:00,
2013-11-01 08:10:00,73.2,70.6,29.53,SSE,156,0.0,0.0,92,0.00,,,0.00,VWS V14.01,2013-11-01 12:10:00,
2013-11-01 08:12:00,73.0,70.4,29.53,SSE,156,0.0,0.0,92,0.00,,,0.00,VWS V14.01,2013-11-01 12:12:00,
2013-11-01 08:13:00,72.9,70.8,29.53,SSE,156,0.0,0.0,93,0.00,,,0.00,VWS V14.01,2013-11-01 12:13:00,
2013-11-01 08:14:00,73.1,70.5,29.53,SSE,156,0.0,0.0,92,0.00,,,0.00,VWS V14.01,2013-11-01 12:14:00,
2013-11-01 08:16:00,73.1,70.5,29.53,SSE,156,0.0,0.0,92,0.00,,,0.00,VWS V14.01,2013-11-01 12:16:00,
2013-11-01 08:18:00,72.9,70.8,29.53,SSE,156,0.0,0.0,93,0.00,,,0.00,VWS V14.01,2013-11-01 12:18:00,
2013-11-01 08:20:00,72.9,70.3,29.53,SSE,156,0.0,0.0,92,0.00,,,0.00,VWS V14.01,2013-11-01 12:20:00,
2013-11-01 08:22:00,73.0,70.4,29.53,SSE,156,0.0,0.0,92,0.00,,,0.00,VWS V14.01,2013-11-01 12:22:00,
2013-11-01 08:23:00,73.1,71.0,29.53,SSE,156,0.0,0.0,93,0.00,,,0.00,VWS V14.01,2013-11-01 12:23:00,
2013-11-01 08:24:00,72.9,70.3,29.53,SSE,156,0.0,0.0,92,0.00,,,0.00,VWS V14.01,2013-11-01 12:24:00,
2013-11-01 08:26:00,73.0,70.5,29.53,SSE,156,0.0,0.0,92,0.00,,,0.00,VWS V14.01,2013-11-01 12:26:00,
2013-11-01 08:28:00,73.0,70.9,29.53,SSE,156,0.0,0.0,93,0.00,,,0.00,VWS V14.01,2013-11-01 12:28:00,
2013-11-01 08:30:00,72.8,70.3,29.53,SSE,156,0.0,0.0,92,0.00,,,0.00,VWS V14.01,2013-11-01 12:30:00,
2013-11-01 08:32:00,72.9,70.5,29.52,SSE,156,0.0,0.0,92,0.00,,,0.00,VWS V14.01,2013-11-01 12:32:00,
2013-11-01 08:33:00,73.2,71.1,29.53,SSE,156,0.0,0.0,93,0.00,,,0.00,VWS V14.01,2013-11-01 12:33:00,
2013-11-01 08:34:00,72.8,70.4,29.53,SSE,156,0.0,0.0,92,0.00,,,0.00,VWS V14.01,2013-11-01 12:34:00,
2013-11-01 08:36:00,73.0,70.6,29.52,SSE,156,0.0,0.0,92,0.00,,,0.00,VWS V14.01,2013-11-01 12:36:00,
2013-11-01 08:38:00,73.3,71.2,29.53,SSE,156,0.0,0.0,93,0.00,,,0.00,VWS V14.01,2013-11-01 12:38:00,
2013-11-01 08:40:00,72.9,70.5,29.53,SSE,156,0.0,0.0,92,0.00,,,0.00,VWS V14.01,2013-11-01 12:40:00,
2013-11-01 08:42:00,73.1,70.7,29.52,SSE,156,0.0,0.0,92,0.00,,,0.00,VWS V14.01,2013-11-01 12:42:00,
2013-11-01 08:43:00,73.6,71.5,29.53,SSE,156,0.0,0.0,93,0.00,,,0.00,VWS V14.01,2013-11-01 12:43:00,
2013-11-01 08:44:00,73.0,70.6,29.53,SSE,156,0.0,0.0,92,0.00,,,0.00,VWS V14.01,2013-11-01 12:44:00,
2013-11-01 08:46:00,73.1,70.8,29.52,SSE,156,0.0,0.0,92,0.00,,,0.00,VWS V14.01,2013-11-01 12:46:00,
2013-11-01 08:48:00,74.0,71.9,29.53,SSE,156,0.0,0.0,93,0.00,,,0.00,VWS V14.01,2013-11-01 12:48:00,
2013-11-01 08:50:00,73.1,70.8,29.53,SSE,156,0.0,0.0,92,0.00,,,0.00,VWS V14.01,2013-11-01 12:50:00,
2013-11-01 08:52:00,73.0,70.7,29.52,SSE,156,0.0,0.0,92,0.00,,,0.00,VWS V14.01,2013-11-01 12:52:00,
2013-11-01 08:53:00,74.1,71.9,29.53,SSE,156,0.0,0.0,93,0.00,,,0.00,VWS V14.01,2013-11-01 12:53:00,
2013-11-01 08:54:00,72.8,70.5,29.53,SSE,156,0.0,0.0,93,0.00,,,0.00,VWS V14.01,2013-11-01 12:54:00,
2013-11-01 08:56:00,72.9,70.7,29.52,SSE,156,0.0,0.0,93,0.00,,,0.00,VWS V14.01,2013-11-01 12:56:00,
2013-11-01 08:58:00,74.5,72.3,29.53,SSE,156,0.0,0.0,93,0.00,,,0.00,VWS V14.01,2013-11-01 12:58:00,
2013-11-01 09:02:00,72.9,70.7,29.53,SSE,156,0.0,0.0,93,0.00,,,0.00,VWS V14.01,2013-11-01 13:02:00,
2013-11-01 09:03:00,74.6,72.3,29.53,SSE,156,0.0,0.0,93,0.00,,,0.00,VWS V14.01,2013-11-01 13:03:00,
2013-11-01 09:04:00,72.8,70.6,29.53,SSE,156,0.0,0.0,93,0.00,,,0.00,VWS V14.01,2013-11-01 13:04:00,
2013-11-01 09:06:00,72.9,70.7,29.53,SSE,156,0.0,0.0,93,0.00,,,0.00,VWS V14.01,2013-11-01 13:06:00,
2013-11-01 09:07:00,74.7,72.4,29.53,SSE,156,0.0,0.0,93,0.00,,,0.00,VWS V14.01,2013-11-01 13:07:00,
2013-11-01 09:08:00,72.8,70.6,29.53,SSE,156,0.0,0.0,93,0.00,,,0.00,VWS V14.01,2013-11-01 13:08:00,
2013-11-01 09:10:00,72.8,70.7,29.53,SSE,156,0.0,0.0,93,0.00,,,0.00,VWS V14.01,2013-11-01 13:10:00,
2013-11-01 09:12:00,75.2,72.8,29.53,SSE,156,0.0,0.0,92,0.00,,,0.00,VWS V14.01,2013-11-01 13:12:00,
2013-11-01 09:14:00,72.8,70.7,29.53,SSE,156,0.0,0.0,93,0.00,,,0.00,VWS V14.01,2013-11-01 13:14:00,
2013-11-01 09:16:00,72.9,70.8,29.53,SSE,156,0.0,0.0,93,0.00,,,0.00,VWS V14.01,2013-11-01 13:16:00,
2013-11-01 09:17:00,75.3,72.9,29.53,SSE,156,0.0,0.0,92,0.00,,,0.00,VWS V14.01,2013-11-01 13:17:00,
2013-11-01 09:18:00,73.0,70.9,29.53,SSE,156,0.0,0.0,93,0.00,,,0.00,VWS V14.01,2013-11-01 13:18:00,
2013-11-01 09:20:00,73.0,70.9,29.53,SSE,156,0.0,0.0,93,0.00,,,0.00,VWS V14.01,2013-11-01 13:20:00,
2013-11-01 09:22:00,75.4,72.9,29.54,SSE,156,0.0,0.0,92,0.00,,,0.00,VWS V14.01,2013-11-01 13:22:00,
2013-11-01 09:24:00,73.0,70.9,29.53,SSE,156,0.0,0.0,93,0.00,,,0.00,VWS V14.01,2013-11-01 13:24:00,
2013-11-01 09:26:00,73.1,71.0,29.53,SSE,156,0.0,0.0,93,0.00,,,0.00,VWS V14.01,2013-11-01 13:26:00,
2013-11-01 09:27:00,75.9,73.3,29.53,SSE,156,0.0,0.0,92,0.00,,,0.00,VWS V14.01,2013-11-01 13:27:00,
2013-11-01 09:28:00,73.1,71.0,29.53,SSE,156,0.0,0.0,93,0.00,,,0.00,VWS V14.01,2013-11-01 13:28:00,
2013-11-01 09:30:00,73.2,71.1,29.53,SSE,156,0.0,0.0,93,0.00,,,0.00,VWS V14.01,2013-11-01 13:30:00,
2013-11-01 09:32:00,75.8,73.2,29.54,SSE,156,0.0,0.0,92,0.00,,,0.00,VWS V14.01,2013-11-01 13:32:00,
2013-11-01 09:34:00,73.3,71.2,29.53,SSE,156,0.0,0.0,93,0.00,,,0.00,VWS V14.01,2013-11-01 13:34:00,
2013-11-01 09:36:00,73.4,71.3,29.53,SSE,156,0.0,0.0,93,0.00,,,0.00,VWS V14.01,2013-11-01 13:36:00,
2013-11-01 09:37:00,76.2,73.6,29.54,SSE,156,0.0,0.0,92,0.00,,,0.00,VWS V14.01,2013-11-01 13:37:00,
2013-11-01 09:38:00,73.5,71.4,29.53,SSE,156,0.0,0.0,93,0.00,,,0.00,VWS V14.01,2013-11-01 13:38:00,
2013-11-01 09:40:00,73.6,71.5,29.53,SSE,156,0.0,0.0,93,0.00,,,0.00,VWS V14.01,2013-11-01 13:40:00,
2013-11-01 09:42:00,76.5,73.7,29.54,SSE,156,0.0,0.0,91,0.00,,,0.00,VWS V14.01,2013-11-01 13:42:00,
2013-11-01 09:44:00,73.9,71.8,29.53,SSE,156,0.0,0.0,93,0.00,,,0.00,VWS V14.01,2013-11-01 13:44:00,
2013-11-01 09:46:00,73.7,71.6,29.53,SSE,156,0.0,0.0,93,0.00,,,0.00,VWS V14.01,2013-11-01 13:46:00,
2013-11-01 09:47:00,76.5,73.6,29.53,SSE,156,0.0,0.0,91,0.00,,,0.00,VWS V14.01,2013-11-01 13:47:00,
2013-11-01 09:48:00,73.9,71.8,29.53,SSE,156,0.0,0.0,93,0.00,,,0.00,VWS V14.01,2013-11-01 13:48:00,
2013-11-01 09:50:00,74.0,71.9,29.53,SSE,156,0.0,0.0,93,0.00,,,0.00,VWS V14.01,2013-11-01 13:50:00,
2013-11-01 09:52:00,77.0,73.5,29.53,East,91,0.0,0.0,89,0.00,,,0.00,VWS V14.01,2013-11-01 13:52:00,
2013-11-01 09:54:00,74.2,72.1,29.53,SSE,156,0.0,0.0,93,0.00,,,0.00,VWS V14.01,2013-11-01 13:54:00,
2013-11-01 09:56:00,74.2,72.0,29.53,SSE,156,0.0,0.0,93,0.00,,,0.00,VWS V14.01,2013-11-01 13:56:00,
2013-11-01 09:57:00,77.4,73.7,29.53,WSW,257,0.0,0.0,88,0.00,,,0.00,VWS V14.01,2013-11-01 13:57:00,
2013-11-01 09:58:00,74.3,72.1,29.53,SSE,156,0.0,0.0,93,0.00,,,0.00,VWS V14.01,2013-11-01 13:58:00,
2013-11-01 10:00:00,74.4,72.2,29.53,SSE,156,0.0,0.0,93,0.00,,,0.00,VWS V14.01,2013-11-01 14:00:00,
2013-11-01 10:02:00,77.4,73.1,29.53,WSW,257,0.0,0.0,87,0.00,,,0.00,VWS V14.01,2013-11-01 14:02:00,
2013-11-01 10:04:00,74.7,72.4,29.53,SSE,156,0.0,0.0,93,0.00,,,0.00,VWS V14.01,2013-11-01 14:04:00,
2013-11-01 10:06:00,74.7,72.4,29.53,SSE,156,0.0,0.0,93,0.00,,,0.00,VWS V14.01,2013-11-01 14:06:00,
2013-11-01 10:07:00,77.9,73.5,29.53,South,180,0.0,1.9,86,0.00,,,0.00,VWS V14.01,2013-11-01 14:07:00,
2013-11-01 10:08:00,74.8,72.5,29.53,SSE,156,0.0,0.0,92,0.00,,,0.00,VWS V14.01,2013-11-01 14:08:00,
2013-11-01 10:10:00,75.0,72.7,29.53,SSE,156,0.0,0.0,92,0.00,,,0.00,VWS V14.01,2013-11-01 14:10:00,
2013-11-01 10:12:00,78.1,73.2,29.53,South,180,0.0,0.0,85,0.00,,,0.00,VWS V14.01,2013-11-01 14:12:00,
2013-11-01 10:14:00,75.2,72.8,29.53,SSE,156,0.0,0.0,92,0.00,,,0.00,VWS V14.01,2013-11-01 14:14:00,
2013-11-01 10:16:00,75.3,72.9,29.53,SSE,156,0.0,0.0,92,0.00,,,0.00,VWS V14.01,2013-11-01 14:16:00,
2013-11-01 10:17:00,78.3,73.0,29.53,WSW,252,0.0,0.0,84,0.00,,,0.00,VWS V14.01,2013-11-01 14:17:00,
2013-11-01 10:18:00,75.3,72.9,29.53,SSE,156,0.0,0.0,92,0.00,,,0.00,VWS V14.01,2013-11-01 14:18:00,
2013-11-01 10:20:00,75.5,73.0,29.53,SSE,156,0.0,0.0,92,0.00,,,0.00,VWS V14.01,2013-11-01 14:20:00,
2013-11-01 10:22:00,78.4,72.7,29.53,WSW,252,0.0,0.0,83,0.00,,,0.00,VWS V14.01,2013-11-01 14:22:00,
2013-11-01 10:24:00,75.7,73.2,29.54,SSE,156,0.0,0.0,92,0.00,,,0.00,VWS V14.01,2013-11-01 14:24:00,
2013-11-01 10:26:00,75.8,73.2,29.54,SSE,156,0.0,0.0,92,0.00,,,0.00,VWS V14.01,2013-11-01 14:26:00,
2013-11-01 10:27:00,78.5,72.7,29.53,WSW,252,0.0,0.0,82,0.00,,,0.00,VWS V14.01,2013-11-01 14:27:00,
2013-11-01 10:28:00,75.7,73.2,29.54,SSE,156,0.0,0.0,92,0.00,,,0.00,VWS V14.01,2013-11-01 14:28:00,
2013-11-01 10:30:00,75.9,73.3,29.54,SSE,156,0.0,0.0,92,0.00,,,0.00,VWS V14.01,2013-11-01 14:30:00,
2013-11-01 10:32:00,78.8,72.9,29.53,WSW,252,0.0,0.0,82,0.00,,,0.00,VWS V14.01,2013-11-01 14:32:00,
2013-11-01 10:34:00,75.9,73.2,29.54,SSE,156,0.0,0.0,92,0.00,,,0.00,VWS V14.01,2013-11-01 14:34:00,
2013-11-01 10:36:00,76.1,73.4,29.54,SSE,156,0.0,0.0,92,0.00,,,0.00,VWS V14.01,2013-11-01 14:36:00,
2013-11-01 10:37:00,79.1,73.1,29.53,South,190,0.0,0.0,82,0.00,,,0.00,VWS V14.01,2013-11-01 14:37:00,
2013-11-01 10:38:00,76.2,73.5,29.54,SSE,156,0.0,0.0,91,0.00,,,0.00,VWS V14.01,2013-11-01 14:38:00,
2013-11-01 10:40:00,76.3,73.6,29.54,SSE,156,0.0,0.0,91,0.00,,,0.00,VWS V14.01,2013-11-01 14:40:00,
2013-11-01 10:42:00,79.5,73.2,29.53,South,190,0.0,0.0,81,0.00,,,0.00,VWS V14.01,2013-11-01 14:42:00,
2013-11-01 10:44:00,76.5,73.6,29.53,SSE,156,0.0,0.0,91,0.00,,,0.00,VWS V14.01,2013-11-01 14:44:00,
2013-11-01 10:46:00,76.6,73.7,29.53,SSE,156,0.0,0.0,91,0.00,,,0.00,VWS V14.01,2013-11-01 14:46:00,
2013-11-01 10:47:00,79.9,72.9,29.53,South,190,0.0,0.0,79,0.00,,,0.00,VWS V14.01,2013-11-01 14:47:00,
2013-11-01 10:48:00,76.9,73.7,29.53,East,91,3.4,3.4,90,0.00,,,0.00,VWS V14.01,2013-11-01 14:48:00,
2013-11-01 10:50:00,76.9,73.4,29.53,East,91,0.0,3.4,89,0.00,,,0.00,VWS V14.01,2013-11-01 14:50:00,
2013-11-01 10:52:00,80.1,72.6,29.52,SSW,195,0.0,2.8,78,0.00,,,0.00,VWS V14.01,2013-11-01 14:52:00,
2013-11-01 10:54:00,77.1,73.5,29.53,East,91,3.1,3.1,89,0.00,,,0.00,VWS V14.01,2013-11-01 14:54:00,
2013-11-01 10:56:00,77.3,73.6,29.53,WSW,257,0.0,5.7,88,0.00,,,0.00,VWS V14.01,2013-11-01 14:56:00,
2013-11-01 10:57:00,80.3,72.6,29.52,ESE,120,0.0,0.0,77,0.00,,,0.00,VWS V14.01,2013-11-01 14:57:00,
2013-11-01 10:58:00,77.5,73.8,29.53,WSW,257,0.0,0.0,88,0.00,,,0.00,VWS V14.01,2013-11-01 14:58:00,
2013-11-01 11:00:00,77.4,73.2,29.53,WSW,257,0.0,0.0,87,0.00,,,0.00,VWS V14.01,2013-11-01 15:00:00,
2013-11-01 11:02:00,80.5,72.0,29.52,SW,226,0.0,0.0,75,0.00,,,0.00,VWS V14.01,2013-11-01 15:02:00,
2013-11-01 11:04:00,77.8,73.4,29.53,WSW,257,0.0,0.0,86,0.00,,,0.00,VWS V14.01,2013-11-01 15:04:00,
2013-11-01 11:06:00,77.9,73.5,29.53,West,260,0.0,4.8,86,0.00,,,0.00,VWS V14.01,2013-11-01 15:06:00,
2013-11-01 11:07:00,80.7,72.0,29.52,South,184,5.0,5.0,75,0.00,,,0.00,VWS V14.01,2013-11-01 15:07:00,
2013-11-01 11:08:00,78.0,73.5,29.53,South,180,0.0,1.9,86,0.00,,,0.00,VWS V14.01,2013-11-01 15:08:00,
2013-11-01 11:10:00,78.0,73.4,29.53,South,180,0.0,0.0,86,0.00,,,0.00,VWS V14.01,2013-11-01 15:10:00,
2013-11-01 11:12:00,81.4,73.1,29.52,SSW,211,0.0,0.0,76,0.00,,,0.00,VWS V14.01,2013-11-01 15:12:00,
2013-11-01 11:14:00,78.2,73.0,29.53,WSW,252,0.0,5.2,84,0.00,,,0.00,VWS V14.01,2013-11-01 15:14:00,
2013-11-01 11:16:00,78.1,72.8,29.53,WSW,252,0.0,0.0,84,0.00,,,0.00,VWS V14.01,2013-11-01 15:16:00,
2013-11-01 11:17:00,81.5,72.7,29.52,SSW,211,0.0,0.0,75,0.00,,,0.00,VWS V14.01,2013-11-01 15:17:00,
2013-11-01 11:18:00,78.3,72.8,29.53,WSW,252,0.0,0.0,83,0.00,,,0.00,VWS V14.01,2013-11-01 15:18:00,
2013-11-01 11:20:00,78.4,72.7,29.53,WSW,252,0.0,0.0,83,0.00,,,0.00,VWS V14.01,2013-11-01 15:20:00,
2013-11-01 11:22:00,82.0,72.0,29.52,SE,138,0.0,5.0,72,0.00,,,0.00,VWS V14.01,2013-11-01 15:22:00,
2013-11-01 11:24:00,78.8,73.1,29.53,WSW,252,0.0,0.0,83,0.00,,,0.00,VWS V14.01,2013-11-01 15:24:00,
2013-11-01 11:26:00,78.7,73.0,29.53,WSW,252,0.0,0.0,83,0.00,,,0.00,VWS V14.01,2013-11-01 15:26:00,
2013-11-01 11:27:00,82.4,72.1,29.52,SE,138,0.0,0.0,71,0.00,,,0.00,VWS V14.01,2013-11-01 15:27:00,
2013-11-01 11:28:00,78.8,72.9,29.53,WSW,252,0.0,2.2,82,0.00,,,0.00,VWS V14.01,2013-11-01 15:28:00,
2013-11-01 11:30:00,79.0,73.0,29.53,WSW,252,0.0,0.0,82,0.00,,,0.00,VWS V14.01,2013-11-01 15:30:00,
2013-11-01 11:32:00,82.7,71.7,29.52,SE,138,0.0,0.0,70,0.00,,,0.00,VWS V14.01,2013-11-01 15:32:00,
2013-11-01 11:34:00,79.1,73.2,29.53,WSW,252,0.0,0.0,82,0.00,,,0.00,VWS V14.01,2013-11-01 15:34:00,
2013-11-01 11:36:00,79.1,73.1,29.53,South,190,0.0,3.4,82,0.00,,,0.00,VWS V14.01,2013-11-01 15:36:00,
2013-11-01 11:37:00,83.1,72.1,29.52,SE,138,0.0,0.0,69,0.00,,,0.00,VWS V14.01,2013-11-01 15:37:00,
2013-11-01 11:38:00,79.2,73.2,29.53,South,190,0.0,0.0,82,0.00,,,0.00,VWS V14.01,2013-11-01 15:38:00,
2013-11-01 11:40:00,79.4,73.1,29.53,South,190,0.0,3.2,81,0.00,,,0.00,VWS V14.01,2013-11-01 15:40:00,
2013-11-01 11:42:00,83.6,71.6,29.51,SSE,156,0.0,0.0,67,0.00,,,0.00,VWS V14.01,2013-11-01 15:42:00,
2013-11-01 11:44:00,79.8,73.2,29.53,South,190,0.0,0.0,80,0.00,,,0.00,VWS V14.01,2013-11-01 15:44:00,
2013-11-01 11:46:00,79.8,72.9,29.53,South,190,0.0,0.0,80,0.00,,,0.00,VWS V14.01,2013-11-01 15:46:00,
2013-11-01 11:47:00,83.7,71.7,29.51,SE,142,0.0,0.0,67,0.00,,,0.00,VWS V14.01,2013-11-01 15:47:00,
2013-11-01 11:48:00,80.0,72.8,29.53,South,190,0.0,0.0,79,0.00,,,0.00,VWS V14.01,2013-11-01 15:48:00,
2013-11-01 11:50:00,80.0,72.5,29.53,WSW,250,0.0,3.5,78,0.00,,,0.00,VWS V14.01,2013-11-01 15:50:00,
2013-11-01 11:52:00,84.0,71.5,29.51,SSE,153,3.4,5.1,66,0.00,,,0.00,VWS V14.01,2013-11-01 15:52:00,
2013-11-01 11:54:00,80.1,72.3,29.52,ESE,120,0.0,4.3,77,0.00,,,0.00,VWS V14.01,2013-11-01 15:54:00,
2013-11-01 11:56:00,80.3,72.6,29.52,ESE,120,0.0,0.0,77,0.00,,,0.00,VWS V14.01,2013-11-01 15:56:00,
2013-11-01 11:57:00,84.0,71.6,29.51,South,186,0.0,0.0,66,0.00,,,0.00,VWS V14.01,2013-11-01 15:57:00,
2013-11-01 11:58:00,80.5,72.2,29.52,SSW,194,4.7,4.7,76,0.00,,,0.00,VWS V14.01,2013-11-01 15:58:00,
2013-11-01 12:00:00,80.5,72.1,29.52,SW,226,0.0,6.5,76,0.00,,,0.00,VWS V14.01,2013-11-01 16:00:00,
2013-11-01 12:02:00,84.3,71.4,29.51,South,187,0.0,0.0,65,0.00,,,0.00,VWS V14.01,2013-11-01 16:02:00,
2013-11-01 12:04:00,80.5,72.0,29.52,SSE,156,0.0,4.7,75,0.00,,,0.00,VWS V14.01,2013-11-01 16:04:00,
2013-11-01 12:06:00,80.8,72.1,29.52,SSE,156,0.0,0.0,75,0.00,,,0.00,VWS V14.01,2013-11-01 16:06:00,
2013-11-01 12:07:00,84.5,71.5,29.51,SW,224,5.3,5.3,65,0.00,,,0.00,VWS V14.01,2013-11-01 16:07:00,
2013-11-01 12:08:00,80.8,72.3,29.52,SSW,211,0.0,5.0,75,0.00,,,0.00,VWS V14.01,2013-11-01 16:08:00,
2013-11-01 12:10:00,81.1,72.7,29.52,SSW,211,0.0,0.0,76,0.00,,,0.00,VWS V14.01,2013-11-01 16:10:00,
2013-11-01 12:12:00,84.5,71.4,29.50,South,187,0.0,3.2,65,0.00,,,0.00,VWS V14.01,2013-11-01 16:12:00,
2013-11-01 12:14:00,81.3,72.8,29.52,SSW,211,0.0,0.0,76,0.00,,,0.00,VWS V14.01,2013-11-01 16:14:00,
2013-11-01 12:16:00,81.6,72.8,29.52,SSW,211,0.0,0.0,75,0.00,,,0.00,VWS V14.01,2013-11-01 16:16:00,
2013-11-01 12:17:00,84.7,70.9,29.50,SE,146,0.0,3.3,63,0.00,,,0.00,VWS V14.01,2013-11-01 16:17:00,
2013-11-01 12:18:00,81.7,72.7,29.52,SSW,211,0.0,0.0,74,0.00,,,0.00,VWS V14.01,2013-11-01 16:18:00,
2013-11-01 12:20:00,81.9,71.7,29.52,SSE,167,2.4,6.5,71,0.00,,,0.00,VWS V14.01,2013-11-01 16:20:00,
2013-11-01 12:22:00,85.1,70.8,29.51,SSW,207,2.7,2.7,62,0.00,,,0.00,VWS V14.01,2013-11-01 16:22:00,
2013-11-01 12:24:00,82.3,71.9,29.52,SE,138,0.0,3.2,71,0.00,,,0.00,VWS V14.01,2013-11-01 16:24:00,
2013-11-01 12:26:00,82.4,72.1,29.52,SE,138,0.0,0.0,71,0.00,,,0.00,VWS V14.01,2013-11-01 16:26:00,
2013-11-01 12:27:00,85.5,70.5,29.50,South,177,3.3,4.3,61,0.00,,,0.00,VWS V14.01,2013-11-01 16:27:00,
2013-11-01 12:28:00,82.6,72.2,29.52,SE,138,0.0,0.0,71,0.00,,,0.00,VWS V14.01,2013-11-01 16:28:00,
2013-11-01 12:30:00,82.5,71.3,29.52,SE,138,0.0,0.0,69,0.00,,,0.00,VWS V14.01,2013-11-01 16:30:00,
2013-11-01 12:32:00,85.7,71.3,29.50,SW,225,0.0,0.0,62,0.00,,,0.00,VWS V14.01,2013-11-01 16:32:00,
2013-11-01 12:34:00,83.0,71.9,29.52,SE,138,0.0,0.0,69,0.00,,,0.00,VWS V14.01,2013-11-01 16:34:00,
2013-11-01 12:36:00,83.0,71.9,29.52,SE,138,0.0,0.0,69,0.00,,,0.00,VWS V14.01,2013-11-01 16:36:00,
2013-11-01 12:37:00,86.2,71.0,29.50,South,180,4.6,5.2,61,0.00,,,0.00,VWS V14.01,2013-11-01 16:37:00,
2013-11-01 12:38:00,83.2,71.6,29.52,SSE,156,0.0,4.5,68,0.00,,,0.00,VWS V14.01,2013-11-01 16:38:00,
2013-11-01 12:40:00,83.4,71.7,29.52,SSE,156,0.0,0.0,68,0.00,,,0.00,VWS V14.01,2013-11-01 16:40:00,
2013-11-01 12:42:00,86.3,70.4,29.50,South,176,3.2,6.3,59,0.00,,,0.00,VWS V14.01,2013-11-01 16:42:00,
2013-11-01 12:44:00,83.4,71.4,29.51,SE,138,3.2,4.5,67,0.00,,,0.00,VWS V14.01,2013-11-01 16:44:00,
2013-11-01 12:46:00,83.6,71.5,29.51,SE,142,0.0,5.8,67,0.00,,,0.00,VWS V14.01,2013-11-01 16:46:00,
2013-11-01 12:47:00,86.4,70.5,29.50,South,174,0.0,3.5,59,0.00,,,0.00,VWS V14.01,2013-11-01 16:47:00,
2013-11-01 12:48:00,83.8,71.6,29.51,SW,224,4.8,5.2,67,0.00,,,0.00,VWS V14.01,2013-11-01 16:48:00,
2013-11-01 12:50:00,83.8,71.3,29.51,South,181,0.0,6.1,66,0.00,,,0.00,VWS V14.01,2013-11-01 16:50:00,
2013-11-01 12:52:00,86.4,70.7,29.49,SSW,198,3.4,4.7,60,0.00,,,0.00,VWS V14.01,2013-11-01 16:52:00,
2013-11-01 12:54:00,84.0,71.3,29.51,South,186,2.3,6.3,66,0.00,,,0.00,VWS V14.01,2013-11-01 16:54:00,
2013-11-01 12:56:00,83.9,71.5,29.50,South,186,0.0,2.3,66,0.00,,,0.00,VWS V14.01,2013-11-01 16:56:00,
2013-11-01 12:57:00,86.6,71.2,29.49,SSW,197,5.8,5.8,60,0.00,,,0.00,VWS V14.01,2013-11-01 16:57:00,
2013-11-01 12:58:00,84.2,71.4,29.50,South,183,2.6,5.2,66,0.00,,,0.00,VWS V14.01,2013-11-01 16:58:00,
2013-11-01 13:02:00,86.5,70.7,29.49,SSW,204,3.1,4.7,59,0.00,,,0.00,VWS V14.01,2013-11-01 17:02:00,
2013-11-01 13:04:00,84.4,71.8,29.50,South,187,0.0,0.0,66,0.00,,,0.00,VWS V14.01,2013-11-01 17:04:00,
2013-11-01 13:06:00,84.5,71.8,29.50,SSW,202,3.2,4.4,66,0.00,,,0.00,VWS V14.01,2013-11-01 17:06:00,
2013-11-01 13:07:00,86.7,70.7,29.49,SSW,200,0.0,4.7,59,0.00,,,0.00,VWS V14.01,2013-11-01 17:07:00,
2013-11-01 13:08:00,84.5,71.1,29.50,SSE,159,0.0,5.3,64,0.00,,,0.00,VWS V14.01,2013-11-01 17:08:00,
2013-11-01 13:10:00,84.5,71.1,29.50,South,187,2.6,6.5,64,0.00,,,0.00,VWS V14.01,2013-11-01 17:10:00,
2013-11-01 13:12:00,86.7,71.1,29.48,South,172,1.9,4.8,60,0.00,,,0.00,VWS V14.01,2013-11-01 17:12:00,
2013-11-01 13:14:00,84.5,71.2,29.50,South,187,0.0,0.0,64,0.00,,,0.00,VWS V14.01,2013-11-01 17:14:00,
2013-11-01 13:16:00,84.5,70.9,29.50,SSE,149,3.0,4.3,64,0.00,,,0.00,VWS V14.01,2013-11-01 17:16:00,
2013-11-01 13:17:00,86.9,71.1,29.49,SSW,207,3.0,5.0,59,0.00,,,0.00,VWS V14.01,2013-11-01 17:17:00,
2013-11-01 13:18:00,84.7,71.0,29.50,SE,146,0.0,3.3,64,0.00,,,0.00,VWS V14.01,2013-11-01 17:18:00,
2013-11-01 13:20:00,85.0,70.9,29.50,SSW,207,0.0,3.4,63,0.00,,,0.00,VWS V14.01,2013-11-01 17:20:00,
2013-11-01 13:22:00,87.0,71.2,29.48,SSE,158,0.0,0.0,60,0.00,,,0.00,VWS V14.01,2013-11-01 17:22:00,
2013-11-01 13:24:00,85.3,71.3,29.50,SSE,152,0.0,4.5,63,0.00,,,0.00,VWS V14.01,2013-11-01 17:24:00,
2013-11-01 13:26:00,85.5,71.1,29.50,SSE,152,0.0,2.7,62,0.00,,,0.00,VWS V14.01,2013-11-01 17:26:00,
2013-11-01 13:27:00,87.3,71.2,29.49,South,187,0.0,2.5,59,0.00,,,0.00,VWS V14.01,2013-11-01 17:27:00,
2013-11-01 13:28:00,85.5,70.8,29.50,SW,224,0.0,4.3,62,0.00,,,0.00,VWS V14.01,2013-11-01 17:28:00,
2013-11-01 13:30:00,85.8,71.1,29.50,SW,225,0.0,10.3,62,0.00,,,0.00,VWS V14.01,2013-11-01 17:30:00,
2013-11-01 13:32:00,87.0,70.8,29.48,SE,142,0.0,0.0,59,0.00,,,0.00,VWS V14.01,2013-11-01 17:32:00,
2013-11-01 13:34:00,86.0,71.7,29.50,SW,214,0.0,4.1,62,0.00,,,0.00,VWS V14.01,2013-11-01 17:34:00,
2013-11-01 13:36:00,86.3,71.3,29.50,SSE,167,3.2,3.2,61,0.00,,,0.00,VWS V14.01,2013-11-01 17:36:00,
2013-11-01 13:37:00,87.3,71.2,29.48,SE,142,0.0,0.0,59,0.00,,,0.00,VWS V14.01,2013-11-01 17:37:00,
2013-11-01 13:38:00,86.2,70.9,29.50,SSE,150,4.5,5.3,60,0.00,,,0.00,VWS V14.01,2013-11-01 17:38:00,
2013-11-01 13:40:00,86.4,70.8,29.50,SE,142,0.0,6.2,60,0.00,,,0.00,VWS V14.01,2013-11-01 17:40:00,
2013-11-01 13:42:00,87.4,69.2,29.47,SSW,197,0.0,4.4,55,0.00,,,0.00,VWS V14.01,2013-11-01 17:42:00,
2013-11-01 13:44:00,86.5,70.9,29.50,SSW,212,4.7,5.3,60,0.00,,,0.00,VWS V14.01,2013-11-01 17:44:00,
2013-11-01 13:46:00,86.5,70.5,29.50,SW,218,3.0,5.4,59,0.00,,,0.00,VWS V14.01,2013-11-01 17:46:00,
2013-11-01 13:47:00,87.4,69.1,29.47,SSW,200,0.0,5.2,55,0.00,,,0.00,VWS V14.01,2013-11-01 17:47:00,
2013-11-01 13:48:00,86.4,70.6,29.49,South,191,3.2,4.3,59,0.00,,,0.00,VWS V14.01,2013-11-01 17:48:00,
2013-11-01 13:50:00,86.5,71.0,29.49,South,170,0.0,5.0,60,0.00,,,0.00,VWS V14.01,2013-11-01 17:50:00,
2013-11-01 13:52:00,87.4,69.1,29.47,SW,218,3.5,5.3,55,0.00,,,0.00,VWS V14.01,2013-11-01 17:52:00,
2013-11-01 13:54:00,86.5,70.8,29.49,South,169,0.0,5.1,60,0.00,,,0.00,VWS V14.01,2013-11-01 17:54:00,
2013-11-01 13:56:00,86.5,71.1,29.49,SSW,211,3.5,4.2,60,0.00,,,0.00,VWS V14.01,2013-11-01 17:56:00,
2013-11-01 13:57:00,87.6,70.0,29.47,SW,233,0.0,0.0,56,0.00,,,0.00,VWS V14.01,2013-11-01 17:57:00,
2013-11-01 13:58:00,86.6,70.7,29.49,SW,215,2.3,5.8,59,0.00,,,0.00,VWS V14.01,2013-11-01 17:58:00,
2013-11-01 14:00:00,86.5,70.6,29.49,SSW,202,1.1,5.0,59,0.00,,,0.00,VWS V14.01,2013-11-01 18:00:00,
2013-11-01 14:02:00,87.7,69.5,29.47,South,191,0.0,4.8,55,0.00,,,0.00,VWS V14.01,2013-11-01 18:02:00,
2013-11-01 14:04:00,86.6,70.8,29.49,SSW,201,0.0,5.0,59,0.00,,,0.00,VWS V14.01,2013-11-01 18:04:00,
2013-11-01 14:06:00,86.6,70.6,29.49,South,180,4.6,6.2,59,0.00,,,0.00,VWS V14.01,2013-11-01 18:06:00,
2013-11-01 14:07:00,87.6,69.6,29.47,South,186,4.3,5.6,55,0.00,,,0.00,VWS V14.01,2013-11-01 18:07:00,
2013-11-01 14:08:00,86.5,70.6,29.48,South,181,0.0,4.7,59,0.00,,,0.00,VWS V14.01,2013-11-01 18:08:00,
2013-11-01 14:10:00,86.6,71.2,29.49,SW,231,0.0,9.1,60,0.00,,,0.00,VWS V14.01,2013-11-01 18:10:00,
2013-11-01 14:12:00,87.7,69.7,29.46,SSW,210,0.0,3.4,55,0.00,,,0.00,VWS V14.01,2013-11-01 18:12:00,
2013-11-01 14:14:00,86.8,70.8,29.49,SSE,159,0.0,4.2,59,0.00,,,0.00,VWS V14.01,2013-11-01 18:14:00,
2013-11-01 14:16:00,86.8,71.0,29.49,SSE,159,0.0,0.0,59,0.00,,,0.00,VWS V14.01,2013-11-01 18:16:00,
2013-11-01 14:17:00,87.7,69.9,29.46,South,174,0.0,2.8,56,0.00,,,0.00,VWS V14.01,2013-11-01 18:17:00,
2013-11-01 14:18:00,87.1,70.9,29.49,SSW,201,4.2,5.0,59,0.00,,,0.00,VWS V14.01,2013-11-01 18:18:00,
2013-11-01 14:20:00,86.9,71.1,29.49,SSE,158,0.0,4.5,60,0.00,,,0.00,VWS V14.01,2013-11-01 18:20:00,
2013-11-01 14:22:00,87.8,69.9,29.46,South,191,3.4,6.7,56,0.00,,,0.00,VWS V14.01,2013-11-01 18:22:00,
2013-11-01 14:24:00,87.2,71.3,29.49,SSE,158,0.0,0.0,59,0.00,,,0.00,VWS V14.01,2013-11-01 18:24:00,
2013-11-01 14:26:00,87.3,71.4,29.48,South,187,2.5,4.6,59,0.00,,,0.00,VWS V14.01,2013-11-01 18:26:00,
2013-11-01 14:27:00,87.5,70.3,29.46,SE,129,0.0,0.0,57,0.00,,,0.00,VWS V14.01,2013-11-01 18:27:00,
2013-11-01 14:28:00,87.3,70.9,29.49,South,187,0.0,2.5,58,0.00,,,0.00,VWS V14.01,2013-11-01 18:28:00,
2013-11-01 14:30:00,87.1,71.0,29.48,SE,142,0.0,3.5,59,0.00,,,0.00,VWS V14.01,2013-11-01 18:30:00,
2013-11-01 14:32:00,87.5,70.6,29.46,SSW,198,2.9,6.0,57,0.00,,,0.00,VWS V14.01,2013-11-01 18:32:00,
2013-11-01 14:34:00,87.2,71.9,29.48,SE,142,0.0,0.0,60,0.00,,,0.00,VWS V14.01,2013-11-01 18:34:00,
2013-11-01 14:36:00,87.1,71.4,29.48,SE,142,0.0,0.0,60,0.00,,,0.00,VWS V14.01,2013-11-01 18:36:00,
2013-11-01 14:37:00,87.6,71.5,29.46,SSW,201,3.2,4.2,59,0.00,,,0.00,VWS V14.01,2013-11-01 18:37:00,
2013-11-01 14:38:00,87.4,70.0,29.48,SW,219,4.3,6.2,56,0.00,,,0.00,VWS V14.01,2013-11-01 18:38:00,
2013-11-01 14:40:00,87.3,68.8,29.48,WSW,239,4.2,8.7,54,0.00,,,0.00,VWS V14.01,2013-11-01 18:40:00,
2013-11-01 14:42:00,88.1,71.9,29.46,SE,139,0.0,0.0,59,0.00,,,0.00,VWS V14.01,2013-11-01 18:42:00,
2013-11-01 14:44:00,87.5,69.2,29.47,South,177,0.0,4.8,55,0.00,,,0.00,VWS V14.01,2013-11-01 18:44:00,
2013-11-01 14:46:00,87.4,69.1,29.47,SSW,204,3.5,7.7,55,0.00,,,0.00,VWS V14.01,2013-11-01 18:46:00,
2013-11-01 14:47:00,88.1,71.7,29.46,SW,232,0.0,0.0,58,0.00,,,0.00,VWS V14.01,2013-11-01 18:47:00,
2013-11-01 14:48:00,87.5,69.1,29.47,SE,132,3.4,6.0,55,0.00,,,0.00,VWS V14.01,2013-11-01 18:48:00,
2013-11-01 14:50:00,87.5,68.9,29.47,South,172,1.8,5.3,54,0.00,,,0.00,VWS V14.01,2013-11-01 18:50:00,
2013-11-01 14:52:00,87.8,71.2,29.46,SW,232,0.0,0.0,58,0.00,,,0.00,VWS V14.01,2013-11-01 18:52:00,
2013-11-01 14:54:00,87.6,69.6,29.47,SSW,193,0.0,5.3,55,0.00,,,0.00,VWS V14.01,2013-11-01 18:54:00,
2013-11-01 14:56:00,87.5,69.9,29.47,SW,233,0.0,4.2,56,0.00,,,0.00,VWS V14.01,2013-11-01 18:56:00,
2013-11-01 14:57:00,87.6,72.1,29.46,South,180,0.0,0.0,60,0.00,,,0.00,VWS V14.01,2013-11-01 18:57:00,
2013-11-01 14:58:00,87.6,69.8,29.47,SSW,195,0.0,5.7,56,0.00,,,0.00,VWS V14.01,2013-11-01 18:58:00,
2013-11-01 15:00:00,87.7,69.4,29.47,SSE,163,4.8,6.5,55,0.00,,,0.00,VWS V14.01,2013-11-01 19:00:00,
2013-11-01 15:02:00,87.5,72.4,29.46,SW,222,0.0,0.0,61,0.00,,,0.00,VWS V14.01,2013-11-01 19:02:00,
2013-11-01 15:04:00,87.7,69.5,29.47,SSW,208,3.4,5.0,55,0.00,,,0.00,VWS V14.01,2013-11-01 19:04:00,
2013-11-01 15:06:00,87.7,69.7,29.47,SSE,160,4.3,5.2,55,0.00,,,0.00,VWS V14.01,2013-11-01 19:06:00,
2013-11-01 15:07:00,87.4,71.4,29.45,WSW,257,0.0,0.0,59,0.00,,,0.00,VWS V14.01,2013-11-01 19:07:00,
2013-11-01 15:08:00,87.7,69.5,29.46,SSW,202,5.5,6.0,55,0.00,,,0.00,VWS V14.01,2013-11-01 19:08:00,
2013-11-01 15:10:00,87.6,69.7,29.46,South,188,3.4,5.5,56,0.00,,,0.00,VWS V14.01,2013-11-01 19:10:00,
2013-11-01 15:12:00,87.6,71.7,29.46,NW,308,0.0,2.7,59,0.00,,,0.00,VWS V14.01,2013-11-01 19:12:00,
2013-11-01 15:14:00,87.6,69.8,29.46,South,177,3.5,5.2,56,0.00,,,0.00,VWS V14.01,2013-11-01 19:14:00,
2013-11-01 15:16:00,87.6,70.3,29.46,South,174,2.8,6.3,57,0.00,,,0.00,VWS V14.01,2013-11-01 19:16:00,
2013-11-01 15:17:00,87.9,71.2,29.46,SSW,208,3.3,3.3,58,0.00,,,0.00,VWS V14.01,2013-11-01 19:17:00,
2013-11-01 15:18:00,87.6,70.0,29.46,South,174,0.0,2.8,56,0.00,,,0.00,VWS V14.01,2013-11-01 19:18:00,
2013-11-01 15:20:00,87.7,69.5,29.46,South,191,3.4,5.7,55,0.00,,,0.00,VWS V14.01,2013-11-01 19:20:00,
2013-11-01 15:22:00,87.8,71.5,29.46,South,184,0.0,1.4,59,0.00,,,0.00,VWS V14.01,2013-11-01 19:22:00,
2013-11-01 15:24:00,87.6,70.1,29.46,SE,129,0.0,5.7,56,0.00,,,0.00,VWS V14.01,2013-11-01 19:24:00,
2013-11-01 15:26:00,87.4,70.2,29.46,SE,129,0.0,0.0,57,0.00,,,0.00,VWS V14.01,2013-11-01 19:26:00,
2013-11-01 15:27:00,87.7,71.3,29.45,South,184,0.0,0.0,58,0.00,,,0.00,VWS V14.01,2013-11-01 19:27:00,
2013-11-01 15:28:00,87.5,70.8,29.46,SE,129,0.0,0.0,58,0.00,,,0.00,VWS V14.01,2013-11-01 19:28:00,
2013-11-01 15:30:00,87.6,70.4,29.46,South,191,4.5,5.5,57,0.00,,,0.00,VWS V14.01,2013-11-01 19:30:00,
2013-11-01 15:32:00,87.4,71.0,29.45,NW,308,0.0,4.3,58,0.00,,,0.00,VWS V14.01,2013-11-01 19:32:00,
2013-11-01 15:34:00,87.6,71.4,29.46,South,186,0.0,0.0,59,0.00,,,0.00,VWS V14.01,2013-11-01 19:34:00,
2013-11-01 15:36:00,87.7,71.6,29.46,South,179,2.8,3.4,59,0.00,,,0.00,VWS V14.01,2013-11-01 19:36:00,
2013-11-01 15:37:00,87.5,70.9,29.45,SSW,194,0.0,0.0,58,0.00,,,0.00,VWS V14.01,2013-11-01 19:37:00,
2013-11-01 15:38:00,87.7,72.0,29.46,SE,139,1.5,4.4,60,0.00,,,0.00,VWS V14.01,2013-11-01 19:38:00,
2013-11-01 15:40:00,87.9,71.8,29.46,SE,139,0.0,1.5,59,0.00,,,0.00,VWS V14.01,2013-11-01 19:40:00,
2013-11-01 15:42:00,87.5,71.7,29.45,South,173,0.0,0.0,60,0.00,,,0.00,VWS V14.01,2013-11-01 19:42:00,
2013-11-01 15:44:00,88.1,71.9,29.46,West,259,0.0,5.8,59,0.00,,,0.00,VWS V14.01,2013-11-01 19:44:00,
2013-11-01 15:46:00,88.2,72.0,29.46,SW,232,0.0,3.4,59,0.00,,,0.00,VWS V14.01,2013-11-01 19:46:00,
2013-11-01 15:47:00,87.4,70.5,29.45,SSE,152,0.0,0.0,57,0.00,,,0.00,VWS V14.01,2013-11-01 19:47:00,
2013-11-01 15:48:00,88.3,71.9,29.46,SW,232,0.0,0.0,58,0.00,,,0.00,VWS V14.01,2013-11-01 19:48:00,
2013-11-01 15:50:00,88.1,71.6,29.46,SW,232,0.0,0.0,58,0.00,,,0.00,VWS V14.01,2013-11-01 19:50:00,
2013-11-01 15:52:00,87.2,70.4,29.45,NW,323,4.2,8.9,58,0.00,,,0.00,VWS V14.01,2013-11-01 19:52:00,
2013-11-01 15:54:00,87.6,71.4,29.46,South,180,0.0,4.3,59,0.00,,,0.00,VWS V14.01,2013-11-01 19:54:00,
2013-11-01 15:56:00,87.6,72.0,29.46,South,180,0.0,0.0,60,0.00,,,0.00,VWS V14.01,2013-11-01 19:56:00,
2013-11-01 15:57:00,87.4,70.1,29.45,South,188,0.0,0.0,56,0.00,,,0.00,VWS V14.01,2013-11-01 19:57:00,
2013-11-01 15:58:00,87.5,72.0,29.46,South,180,0.0,2.9,60,0.00,,,0.00,VWS V14.01,2013-11-01 19:58:00,
2013-11-01 16:00:00,87.3,72.2,29.46,SW,222,0.0,4.2,61,0.00,,,0.00,VWS V14.01,2013-11-01 20:00:00,
2013-11-01 16:02:00,87.8,70.6,29.45,WSW,246,0.0,0.0,57,0.00,,,0.00,VWS V14.01,2013-11-01 20:02:00,
2013-11-01 16:04:00,87.3,71.8,29.46,SW,222,0.0,0.0,60,0.00,,,0.00,VWS V14.01,2013-11-01 20:04:00,
2013-11-01 16:06:00,87.2,71.2,29.45,WSW,257,0.0,3.1,59,0.00,,,0.00,VWS V14.01,2013-11-01 20:06:00,
2013-11-01 16:07:00,87.9,70.0,29.45,WNW,294,5.5,7.3,56,0.00,,,0.00,VWS V14.01,2013-11-01 20:07:00,
2013-11-01 16:08:00,87.2,71.4,29.46,NW,326,8.1,8.1,60,0.00,,,0.00,VWS V14.01,2013-11-01 20:08:00,
2013-11-01 16:10:00,87.4,71.5,29.45,NNW,335,0.0,9.9,59,0.00,,,0.00,VWS V14.01,2013-11-01 20:10:00,
2013-11-01 16:12:00,87.8,70.1,29.44,South,184,0.0,3.4,56,0.00,,,0.00,VWS V14.01,2013-11-01 20:12:00,
2013-11-01 16:14:00,87.7,71.1,29.45,SSW,212,0.0,5.7,58,0.00,,,0.00,VWS V14.01,2013-11-01 20:14:00,
2013-11-01 16:16:00,87.8,71.0,29.46,SW,215,3.1,5.2,58,0.00,,,0.00,VWS V14.01,2013-11-01 20:16:00,
2013-11-01 16:17:00,87.8,70.4,29.44,South,184,0.0,0.0,56,0.00,,,0.00,VWS V14.01,2013-11-01 20:17:00,
2013-11-01 16:18:00,87.9,71.4,29.46,South,184,0.0,4.8,58,0.00,,,0.00,VWS V14.01,2013-11-01 20:18:00,
2013-11-01 16:20:00,87.8,71.7,29.46,South,184,1.4,1.4,59,0.00,,,0.00,VWS V14.01,2013-11-01 20:20:00,
2013-11-01 16:22:00,87.7,71.6,29.46,South,184,0.0,1.4,59,0.00,,,0.00,VWS V14.01,2013-11-01 20:22:00,
2013-11-01 16:23:00,87.9,69.7,29.44,SSE,150,2.5,3.2,55,0.00,,,0.00,VWS V14.01,2013-11-01 20:23:00,
2013-11-01 16:24:00,87.7,71.1,29.45,South,184,0.0,0.0,58,0.00,,,0.00,VWS V14.01,2013-11-01 20:24:00,
2013-11-01 16:26:00,87.5,71.1,29.45,South,184,0.0,0.0,58,0.00,,,0.00,VWS V14.01,2013-11-01 20:26:00,
2013-11-01 16:28:00,87.9,69.0,29.44,South,190,0.0,5.7,54,0.00,,,0.00,VWS V14.01,2013-11-01 20:28:00,
2013-11-01 16:30:00,87.5,71.2,29.45,NW,308,4.3,6.8,59,0.00,,,0.00,VWS V14.01,2013-11-01 20:30:00,
2013-11-01 16:32:00,87.6,71.0,29.45,West,259,3.4,9.2,58,0.00,,,0.00,VWS V14.01,2013-11-01 20:32:00,
2013-11-01 16:33:00,87.8,69.2,29.44,South,190,0.0,0.0,54,0.00,,,0.00,VWS V14.01,2013-11-01 20:33:00,
2013-11-01 16:34:00,87.6,71.2,29.46,WSW,240,0.0,9.8,58,0.00,,,0.00,VWS V14.01,2013-11-01 20:34:00,
2013-11-01 16:36:00,87.5,70.9,29.45,SSW,194,0.0,3.2,58,0.00,,,0.00,VWS V14.01,2013-11-01 20:36:00,
2013-11-01 16:38:00,88.0,69.1,29.44,South,188,0.0,5.7,54,0.00,,,0.00,VWS V14.01,2013-11-01 20:38:00,
2013-11-01 16:40:00,87.5,71.5,29.45,South,173,0.0,5.2,59,0.00,,,0.00,VWS V14.01,2013-11-01 20:40:00,
2013-11-01 16:42:00,87.4,70.8,29.45,SE,146,0.0,3.4,58,0.00,,,0.00,VWS V14.01,2013-11-01 20:42:00,
2013-11-01 16:43:00,87.9,69.0,29.44,South,187,0.0,0.0,54,0.00,,,0.00,VWS V14.01,2013-11-01 20:43:00,
2013-11-01 16:44:00,87.4,70.6,29.45,NE,55,0.0,6.0,58,0.00,,,0.00,VWS V14.01,2013-11-01 20:44:00,
2013-11-01 16:46:00,87.4,70.5,29.45,SSE,152,0.0,3.5,57,0.00,,,0.00,VWS V14.01,2013-11-01 20:46:00,
2013-11-01 16:48:00,87.9,68.9,29.44,South,173,3.1,4.7,53,0.00,,,0.00,VWS V14.01,2013-11-01 20:48:00,
2013-11-01 16:50:00,87.1,70.1,29.45,WSW,246,2.7,11.8,57,0.00,,,0.00,VWS V14.01,2013-11-01 20:50:00,
2013-11-01 16:52:00,87.3,70.5,29.45,SSW,195,0.0,8.9,58,0.00,,,0.00,VWS V14.01,2013-11-01 20:52:00,
2013-11-01 16:53:00,87.6,68.3,29.44,South,169,0.0,0.0,53,0.00,,,0.00,VWS V14.01,2013-11-01 20:53:00,
2013-11-01 16:54:00,87.4,70.4,29.45,South,188,2.7,3.4,57,0.00,,,0.00,VWS V14.01,2013-11-01 20:54:00,
2013-11-01 16:56:00,87.4,70.1,29.45,South,188,0.0,2.7,56,0.00,,,0.00,VWS V14.01,2013-11-01 20:56:00,
2013-11-01 16:58:00,87.5,68.5,29.44,South,169,0.0,0.0,53,0.00,,,0.00,VWS V14.01,2013-11-01 20:58:00,
2013-11-01 17:02:00,87.5,69.8,29.45,WSW,246,0.0,2.3,56,0.00,,,0.00,VWS V14.01,2013-11-01 21:02:00,
2013-11-01 17:03:00,87.4,68.4,29.44,SW,214,3.5,3.5,53,0.00,,,0.00,VWS V14.01,2013-11-01 21:03:00,
2013-11-01 17:04:00,87.8,70.3,29.45,WSW,246,3.2,3.2,56,0.00,,,0.00,VWS V14.01,2013-11-01 21:04:00,
2013-11-01 17:06:00,87.9,70.1,29.45,South,170,0.0,3.2,56,0.00,,,0.00,VWS V14.01,2013-11-01 21:06:00,
2013-11-01 17:08:00,87.4,68.4,29.44,NW,311,0.0,2.2,53,0.00,,,0.00,VWS V14.01,2013-11-01 21:08:00,
2013-11-01 17:10:00,87.9,70.1,29.44,WNW,290,0.0,7.8,56,0.00,,,0.00,VWS V14.01,2013-11-01 21:10:00,
2013-11-01 17:12:00,87.9,70.4,29.44,South,184,0.0,3.4,56,0.00,,,0.00,VWS V14.01,2013-11-01 21:12:00,
2013-11-01 17:13:00,87.5,68.1,29.44,SW,214,3.1,4.8,53,0.00,,,0.00,VWS V14.01,2013-11-01 21:13:00,
2013-11-01 17:14:00,87.8,70.1,29.44,South,184,0.0,3.5,56,0.00,,,0.00,VWS V14.01,2013-11-01 21:14:00,
2013-11-01 17:16:00,87.8,70.3,29.44,South,184,0.0,0.0,56,0.00,,,0.00,VWS V14.01,2013-11-01 21:16:00,
2013-11-01 17:18:00,87.4,67.7,29.45,South,172,0.0,0.0,52,0.00,,,0.00,VWS V14.01,2013-11-01 21:18:00,
2013-11-01 17:20:00,87.9,70.3,29.44,SE,136,0.0,3.3,56,0.00,,,0.00,VWS V14.01,2013-11-01 21:20:00,
2013-11-01 17:22:00,87.9,69.7,29.44,SSE,150,2.5,3.2,55,0.00,,,0.00,VWS V14.01,2013-11-01 21:22:00,
2013-11-01 17:23:00,87.2,67.8,29.45,SSE,156,3.0,3.0,53,0.00,,,0.00,VWS V14.01,2013-11-01 21:23:00,
2013-11-01 17:24:00,87.8,69.1,29.44,SSE,150,0.0,5.3,54,0.00,,,0.00,VWS V14.01,2013-11-01 21:24:00,
2013-11-01 17:26:00,87.9,69.1,29.44,South,187,5.7,5.7,54,0.00,,,0.00,VWS V14.01,2013-11-01 21:26:00,
2013-11-01 17:28:00,87.2,68.1,29.44,WSW,238,0.0,0.0,53,0.00,,,0.00,VWS V14.01,2013-11-01 21:28:00,
2013-11-01 17:30:00,87.8,69.3,29.44,South,190,0.0,0.0,54,0.00,,,0.00,VWS V14.01,2013-11-01 21:30:00,
2013-11-01 17:32:00,87.9,69.2,29.44,South,190,0.0,4.1,54,0.00,,,0.00,VWS V14.01,2013-11-01 21:32:00,
2013-11-01 17:33:00,86.9,67.4,29.44,WSW,238,0.0,0.0,52,0.00,,,0.00,VWS V14.01,2013-11-01 21:33:00,
2013-11-01 17:34:00,87.8,68.8,29.44,South,191,0.0,6.2,54,0.00,,,0.00,VWS V14.01,2013-11-01 21:34:00,
2013-11-01 17:36:00,87.8,69.4,29.44,SSW,193,0.0,6.5,54,0.00,,,0.00,VWS V14.01,2013-11-01 21:36:00,
2013-11-01 17:38:00,86.6,67.5,29.44,WSW,238,0.0,0.0,53,0.00,,,0.00,VWS V14.01,2013-11-01 21:38:00,
2013-11-01 17:40:00,87.8,69.0,29.44,South,186,0.0,0.0,54,0.00,,,0.00,VWS V14.01,2013-11-01 21:40:00,
2013-11-01 17:42:00,88.0,69.1,29.44,South,187,0.0,3.4,54,0.00,,,0.00,VWS V14.01,2013-11-01 21:42:00,
2013-11-01 17:43:00,86.6,68.1,29.44,WSW,238,0.0,0.0,54,0.00,,,0.00,VWS V14.01,2013-11-01 21:43:00,
2013-11-01 17:44:00,87.8,68.7,29.44,South,177,0.0,6.3,53,0.00,,,0.00,VWS V14.01,2013-11-01 21:44:00,
2013-11-01 17:46:00,87.7,68.7,29.44,West,281,4.7,4.7,53,0.00,,,0.00,VWS V14.01,2013-11-01 21:46:00,
2013-11-01 17:48:00,86.4,68.2,29.44,WSW,238,0.0,0.0,55,0.00,,,0.00,VWS V14.01,2013-11-01 21:48:00,
2013-11-01 17:50:00,87.5,68.3,29.44,South,173,0.0,4.4,53,0.00,,,0.00,VWS V14.01,2013-11-01 21:50:00,
2013-11-01 17:52:00,87.6,68.3,29.44,South,169,0.0,9.6,53,0.00,,,0.00,VWS V14.01,2013-11-01 21:52:00,
2013-11-01 17:53:00,86.3,67.8,29.44,NNE,22,0.0,0.0,54,0.00,,,0.00,VWS V14.01,2013-11-01 21:53:00,
2013-11-01 17:54:00,87.6,67.8,29.44,South,169,0.0,0.0,52,0.00,,,0.00,VWS V14.01,2013-11-01 21:54:00,
2013-11-01 17:56:00,87.6,68.4,29.44,South,169,0.0,0.0,53,0.00,,,0.00,VWS V14.01,2013-11-01 21:56:00,
2013-11-01 17:58:00,86.2,68.6,29.44,NNE,22,0.0,0.0,56,0.00,,,0.00,VWS V14.01,2013-11-01 21:58:00,
2013-11-01 18:00:00,87.5,68.2,29.44,SW,217,0.0,4.6,53,0.00,,,0.00,VWS V14.01,2013-11-01 22:00:00,
2013-11-01 18:02:00,87.5,68.3,29.44,SSW,204,0.0,3.5,53,0.00,,,0.00,VWS V14.01,2013-11-01 22:02:00,
2013-11-01 18:03:00,85.9,69.0,29.44,West,274,0.0,0.0,57,0.00,,,0.00,VWS V14.01,2013-11-01 22:03:00,
2013-11-01 18:04:00,87.5,68.6,29.44,SSW,204,0.0,0.0,54,0.00,,,0.00,VWS V14.01,2013-11-01 22:04:00,
2013-11-01 18:06:00,87.4,68.3,29.44,NW,311,0.0,3.2,53,0.00,,,0.00,VWS V14.01,2013-11-01 22:06:00,
2013-11-01 18:08:00,85.7,69.5,29.44,SSE,149,0.0,0.0,59,0.00,,,0.00,VWS V14.01,2013-11-01 22:08:00,
2013-11-01 18:10:00,87.4,68.1,29.44,SE,142,0.0,4.3,53,0.00,,,0.00,VWS V14.01,2013-11-01 22:10:00,
2013-11-01 18:12:00,87.3,68.0,29.44,South,188,4.8,8.5,53,0.00,,,0.00,VWS V14.01,2013-11-01 22:12:00,
2013-11-01 18:13:00,85.5,69.9,29.45,SSE,149,0.0,0.0,60,0.00,,,0.00,VWS V14.01,2013-11-01 22:13:00,
2013-11-01 18:14:00,87.3,67.9,29.44,SW,232,0.0,4.8,53,0.00,,,0.00,VWS V14.01,2013-11-01 22:14:00,
2013-11-01 18:16:00,87.2,67.4,29.44,South,172,0.0,6.6,52,0.00,,,0.00,VWS V14.01,2013-11-01 22:16:00,
2013-11-01 18:18:00,85.3,70.5,29.45,NW,318,3.4,6.1,61,0.00,,,0.00,VWS V14.01,2013-11-01 22:18:00,
2013-11-01 18:20:00,87.2,67.6,29.45,South,172,0.0,4.2,52,0.00,,,0.00,VWS V14.01,2013-11-01 22:20:00,
2013-11-01 18:22:00,87.2,67.7,29.45,West,269,0.0,5.3,52,0.00,,,0.00,VWS V14.01,2013-11-01 22:22:00,
2013-11-01 18:23:00,85.3,71.0,29.45,NW,305,5.1,5.1,62,0.00,,,0.00,VWS V14.01,2013-11-01 22:23:00,
2013-11-01 18:24:00,87.3,67.8,29.44,WSW,238,0.0,3.4,52,0.00,,,0.00,VWS V14.01,2013-11-01 22:24:00,
2013-11-01 18:26:00,87.0,67.6,29.44,WSW,238,0.0,3.4,53,0.00,,,0.00,VWS V14.01,2013-11-01 22:26:00,
2013-11-01 18:28:00,84.9,71.1,29.45,North,352,0.0,0.0,63,0.00,,,0.00,VWS V14.01,2013-11-01 22:28:00,
2013-11-01 18:30:00,87.1,67.5,29.44,WSW,238,0.0,0.0,52,0.00,,,0.00,VWS V14.01,2013-11-01 22:30:00,
2013-11-01 18:32:00,86.9,67.4,29.44,WSW,238,0.0,3.2,52,0.00,,,0.00,VWS V14.01,2013-11-01 22:32:00,
2013-11-01 18:33:00,84.6,70.8,29.45,SW,236,0.0,0.0,63,0.00,,,0.00,VWS V14.01,2013-11-01 22:33:00,
2013-11-01 18:34:00,86.8,67.4,29.44,WSW,238,0.0,0.0,52,0.00,,,0.00,VWS V14.01,2013-11-01 22:34:00,
2013-11-01 18:36:00,86.9,67.7,29.44,WSW,238,0.0,0.0,53,0.00,,,0.00,VWS V14.01,2013-11-01 22:36:00,
2013-11-01 18:38:00,84.5,71.0,29.45,WNW,301,0.0,0.0,64,0.00,,,0.00,VWS V14.01,2013-11-01 22:38:00,
2013-11-01 18:40:00,86.7,67.9,29.44,WSW,238,0.0,0.0,54,0.00,,,0.00,VWS V14.01,2013-11-01 22:40:00,
2013-11-01 18:42:00,86.6,68.0,29.44,WSW,238,0.0,0.0,54,0.00,,,0.00,VWS V14.01,2013-11-01 22:42:00,
2013-11-01 18:43:00,83.9,71.7,29.45,WNW,290,3.4,8.1,67,0.00,,,0.00,VWS V14.01,2013-11-01 22:43:00,
2013-11-01 18:44:00,86.6,68.0,29.44,WSW,238,0.0,0.0,54,0.00,,,0.00,VWS V14.01,2013-11-01 22:44:00,
2013-11-01 18:46:00,86.5,68.2,29.44,WSW,238,0.0,0.0,54,0.00,,,0.00,VWS V14.01,2013-11-01 22:46:00,
2013-11-01 18:48:00,83.5,70.8,29.45,SE,127,0.0,0.0,66,0.00,,,0.00,VWS V14.01,2013-11-01 22:48:00,
2013-11-01 18:50:00,86.5,68.3,29.44,WSW,238,0.0,0.0,55,0.00,,,0.00,VWS V14.01,2013-11-01 22:50:00,
2013-11-01 18:52:00,86.3,67.7,29.44,NNE,22,0.0,7.0,54,0.00,,,0.00,VWS V14.01,2013-11-01 22:52:00,
2013-11-01 18:53:00,83.7,70.7,29.45,NNW,345,0.0,5.5,65,0.00,,,0.00,VWS V14.01,2013-11-01 22:53:00,
2013-11-01 18:54:00,86.2,68.1,29.44,NNE,22,0.0,0.0,55,0.00,,,0.00,VWS V14.01,2013-11-01 22:54:00,
2013-11-01 18:56:00,86.2,68.4,29.44,NNE,22,0.0,0.0,55,0.00,,,0.00,VWS V14.01,2013-11-01 22:56:00,
2013-11-01 18:58:00,83.6,70.5,29.45,NNW,345,0.0,0.0,65,0.00,,,0.00,VWS V14.01,2013-11-01 22:58:00,
2013-11-01 19:00:00,86.0,68.4,29.44,West,259,0.0,4.1,56,0.00,,,0.00,VWS V14.01,2013-11-01 23:00:00,
2013-11-01 19:02:00,85.9,68.9,29.44,West,274,0.0,3.2,57,0.00,,,0.00,VWS V14.01,2013-11-01 23:02:00,
2013-11-01 19:03:00,83.8,70.7,29.44,NNW,345,0.0,0.0,65,0.00,,,0.00,VWS V14.01,2013-11-01 23:03:00,
2013-11-01 19:04:00,85.8,69.2,29.44,SSE,149,0.0,2.0,58,0.00,,,0.00,VWS V14.01,2013-11-01 23:04:00,
2013-11-01 19:06:00,85.8,69.5,29.45,SSE,149,0.0,0.0,58,0.00,,,0.00,VWS V14.01,2013-11-01 23:06:00,
2013-11-01 19:08:00,83.5,70.5,29.45,NNW,345,0.0,0.0,65,0.00,,,0.00,VWS V14.01,2013-11-01 23:08:00,
2013-11-01 19:10:00,85.5,69.6,29.44,SSE,149,0.0,0.0,59,0.00,,,0.00,VWS V14.01,2013-11-01 23:10:00,
2013-11-01 19:12:00,85.5,70.0,29.45,SSE,149,0.0,0.0,60,0.00,,,0.00,VWS V14.01,2013-11-01 23:12:00,
2013-11-01 19:13:00,83.6,70.6,29.45,NNW,345,0.0,0.0,65,0.00,,,0.00,VWS V14.01,2013-11-01 23:13:00,
2013-11-01 19:14:00,85.4,70.0,29.45,SSE,149,0.0,0.0,60,0.00,,,0.00,VWS V14.01,2013-11-01 23:14:00,
2013-11-01 19:16:00,85.4,70.5,29.45,SSE,149,4.8,4.8,61,0.00,,,0.00,VWS V14.01,2013-11-01 23:16:00,
2013-11-01 19:18:00,83.4,70.4,29.45,NW,321,0.0,0.0,65,0.00,,,0.00,VWS V14.01,2013-11-01 23:18:00,
2013-11-01 19:20:00,85.3,70.8,29.45,WSW,239,0.0,6.1,62,0.00,,,0.00,VWS V14.01,2013-11-01 23:20:00,
2013-11-01 19:22:00,85.3,71.0,29.45,West,281,4.7,5.5,62,0.00,,,0.00,VWS V14.01,2013-11-01 23:22:00,
2013-11-01 19:23:00,83.5,70.7,29.45,NW,321,0.0,0.0,65,0.00,,,0.00,VWS V14.01,2013-11-01 23:23:00,
2013-11-01 19:24:00,85.0,70.7,29.45,North,352,3.2,8.6,62,0.00,,,0.00,VWS V14.01,2013-11-01 23:24:00,
2013-11-01 19:26:00,84.9,70.9,29.45,North,352,0.0,3.2,63,0.00,,,0.00,VWS V14.01,2013-11-01 23:26:00,
2013-11-01 19:28:00,83.4,70.7,29.45,NW,321,0.0,0.0,66,0.00,,,0.00,VWS V14.01,2013-11-01 23:28:00,
2013-11-01 19:30:00,84.7,71.0,29.45,North,352,0.0,0.0,64,0.00,,,0.00,VWS V14.01,2013-11-01 23:30:00,
2013-11-01 19:32:00,84.6,70.8,29.45,SW,236,0.0,7.8,63,0.00,,,0.00,VWS V14.01,2013-11-01 23:32:00,
2013-11-01 19:33:00,83.2,70.6,29.45,NW,321,0.0,0.0,66,0.00,,,0.00,VWS V14.01,2013-11-01 23:33:00,
2013-11-01 19:34:00,84.5,70.9,29.45,WNW,301,0.0,4.9,64,0.00,,,0.00,VWS V14.01,2013-11-01 23:34:00,
2013-11-01 19:36:00,84.4,70.9,29.45,WNW,301,0.0,0.0,64,0.00,,,0.00,VWS V14.01,2013-11-01 23:36:00,
2013-11-01 19:38:00,83.0,70.6,29.45,NW,321,0.0,0.0,66,0.00,,,0.00,VWS V14.01,2013-11-01 23:38:00,
2013-11-01 19:40:00,84.2,71.3,29.45,WNW,301,0.0,0.0,65,0.00,,,0.00,VWS V14.01,2013-11-01 23:40:00,
2013-11-01 19:42:00,83.9,71.7,29.45,WNW,290,3.4,8.1,67,0.00,,,0.00,VWS V14.01,2013-11-01 23:42:00,
2013-11-01 19:43:00,82.8,70.6,29.45,NW,321,0.0,0.0,67,0.00,,,0.00,VWS V14.01,2013-11-01 23:43:00,
2013-11-01 19:44:00,83.7,71.9,29.45,SE,127,0.0,9.3,68,0.00,,,0.00,VWS V14.01,2013-11-01 23:44:00,
2013-11-01 19:46:00,83.5,71.3,29.45,SE,127,0.0,0.0,67,0.00,,,0.00,VWS V14.01,2013-11-01 23:46:00,
2013-11-01 19:48:00,82.5,70.5,29.45,NW,321,0.0,0.0,67,0.00,,,0.00,VWS V14.01,2013-11-01 23:48:00,
2013-11-01 19:50:00,83.4,70.7,29.45,SE,127,0.0,0.0,66,0.00,,,0.00,VWS V14.01,2013-11-01 23:50:00,
2013-11-01 19:52:00,83.4,70.5,29.45,NNW,345,0.0,5.5,65,0.00,,,0.00,VWS V14.01,2013-11-01 23:52:00,
2013-11-01 19:53:00,82.4,70.6,29.45,NW,321,0.0,0.0,68,0.00,,,0.00,VWS V14.01,2013-11-01 23:53:00,
2013-11-01 19:54:00,83.7,70.7,29.45,NNW,345,0.0,0.0,65,0.00,,,0.00,VWS V14.01,2013-11-01 23:54:00,
2013-11-01 19:56:00,83.6,70.6,29.45,NNW,345,0.0,0.0,65,0.00,,,0.00,VWS V14.01,2013-11-01 23:56:00,
2013-11-01 19:58:00,82.4,70.7,29.45,NW,321,0.0,0.0,68,0.00,,,0.00,VWS V14.01,2013-11-01 23:58:00,
2013-11-01 20:00:00,83.7,70.7,29.45,NNW,345,0.0,0.0,65,0.00,,,0.00,VWS V14.01,2013-11-02 00:00:00,
2013-11-01 20:02:00,83.6,70.5,29.44,NNW,345,0.0,0.0,65,0.00,,,0.00,VWS V14.01,2013-11-02 00:02:00,
2013-11-01 20:03:00,82.1,70.6,29.45,NW,321,0.0,0.0,68,0.00,,,0.00,VWS V14.01,2013-11-02 00:03:00,
2013-11-01 20:04:00,83.8,70.7,29.44,NNW,345,0.0,0.0,65,0.00,,,0.00,VWS V14.01,2013-11-02 00:04:00,
2013-11-01 20:06:00,83.6,70.5,29.45,NNW,345,0.0,0.0,65,0.00,,,0.00,VWS V14.01,2013-11-02 00:06:00,
2013-11-01 20:08:00,81.9,70.5,29.45,NW,321,0.0,0.0,68,0.00,,,0.00,VWS V14.01,2013-11-02 00:08:00,
2013-11-01 20:10:00,83.7,70.7,29.45,NNW,345,0.0,0.0,65,0.00,,,0.00,VWS V14.01,2013-11-02 00:10:00,
2013-11-01 20:12:00,83.4,70.5,29.45,NNW,345,0.0,0.0,65,0.00,,,0.00,VWS V14.01,2013-11-02 00:12:00,
2013-11-01 20:13:00,81.8,70.9,29.45,NW,321,0.0,0.0,70,0.00,,,0.00,VWS V14.01,2013-11-02 00:13:00,
2013-11-01 20:14:00,83.4,70.5,29.45,NNW,345,0.0,0.0,65,0.00,,,0.00,VWS V14.01,2013-11-02 00:14:00,
2013-11-01 20:16:00,83.4,70.5,29.45,NW,321,0.0,2.9,65,0.00,,,0.00,VWS V14.01,2013-11-02 00:16:00,
2013-11-01 20:18:00,81.5,70.8,29.45,NW,321,0.0,0.0,70,0.00,,,0.00,VWS V14.01,2013-11-02 00:18:00,
2013-11-01 20:20:00,83.4,70.5,29.45,NW,321,0.0,0.0,65,0.00,,,0.00,VWS V14.01,2013-11-02 00:20:00,
2013-11-01 20:22:00,83.3,70.4,29.45,NW,321,0.0,0.0,65,0.00,,,0.00,VWS V14.01,2013-11-02 00:22:00,
2013-11-01 20:23:00,81.4,71.0,29.45,NW,321,0.0,0.0,71,0.00,,,0.00,VWS V14.01,2013-11-02 00:23:00,
2013-11-01 20:24:00,83.3,70.5,29.45,NW,321,0.0,0.0,65,0.00,,,0.00,VWS V14.01,2013-11-02 00:24:00,
2013-11-01 20:26:00,83.3,70.5,29.45,NW,321,0.0,0.0,66,0.00,,,0.00,VWS V14.01,2013-11-02 00:26:00,
2013-11-01 20:28:00,81.1,70.6,29.45,NW,321,0.0,0.0,70,0.00,,,0.00,VWS V14.01,2013-11-02 00:28:00,
2013-11-01 20:30:00,83.3,70.7,29.45,NW,321,0.0,0.0,66,0.00,,,0.00,VWS V14.01,2013-11-02 00:30:00,
2013-11-01 20:32:00,83.1,70.5,29.45,NW,321,0.0,0.0,66,0.00,,,0.00,VWS V14.01,2013-11-02 00:32:00,
2013-11-01 20:33:00,81.1,70.6,29.45,NW,321,0.0,0.0,70,0.00,,,0.00,VWS V14.01,2013-11-02 00:33:00,
2013-11-01 20:34:00,83.1,70.6,29.45,NW,321,0.0,0.0,66,0.00,,,0.00,VWS V14.01,2013-11-02 00:34:00,
2013-11-01 20:36:00,83.2,70.8,29.45,NW,321,0.0,0.0,66,0.00,,,0.00,VWS V14.01,2013-11-02 00:36:00,
2013-11-01 20:38:00,81.2,70.5,29.45,NW,321,0.0,0.0,70,0.00,,,0.00,VWS V14.01,2013-11-02 00:38:00,
2013-11-01 20:40:00,82.9,70.6,29.45,NW,321,0.0,0.0,66,0.00,,,0.00,VWS V14.01,2013-11-02 00:40:00,
2013-11-01 20:42:00,82.8,70.6,29.45,NW,321,0.0,0.0,67,0.00,,,0.00,VWS V14.01,2013-11-02 00:42:00,
2013-11-01 20:43:00,81.0,70.1,29.45,NW,321,0.0,0.0,70,0.00,,,0.00,VWS V14.01,2013-11-02 00:43:00,
2013-11-01 20:44:00,82.7,70.6,29.45,NW,321,0.0,0.0,67,0.00,,,0.00,VWS V14.01,2013-11-02 00:44:00,
2013-11-01 20:46:00,82.8,70.8,29.45,NW,321,0.0,0.0,67,0.00,,,0.00,VWS V14.01,2013-11-02 00:46:00,
2013-11-01 20:48:00,81.3,70.4,29.45,NW,321,0.0,0.0,70,0.00,,,0.00,VWS V14.01,2013-11-02 00:48:00,
2013-11-01 20:50:00,82.4,70.5,29.45,NW,321,0.0,0.0,67,0.00,,,0.00,VWS V14.01,2013-11-02 00:50:00,
2013-11-01 20:52:00,82.5,70.7,29.45,NW,321,0.0,0.0,68,0.00,,,0.00,VWS V14.01,2013-11-02 00:52:00,
2013-11-01 20:53:00,81.1,70.0,29.45,NW,321,0.0,0.0,69,0.00,,,0.00,VWS V14.01,2013-11-02 00:53:00,
2013-11-01 20:54:00,82.4,70.7,29.45,NW,321,0.0,0.0,68,0.00,,,0.00,VWS V14.01,2013-11-02 00:54:00,
2013-11-01 20:56:00,82.4,70.7,29.45,NW,321,0.0,0.0,68,0.00,,,0.00,VWS V14.01,2013-11-02 00:56:00,
2013-11-01 20:58:00,81.2,70.1,29.45,NW,321,0.0,0.0,69,0.00,,,0.00,VWS V14.01,2013-11-02 00:58:00,
2013-11-01 21:02:00,81.9,70.4,29.45,NW,321,0.0,0.0,68,0.00,,,0.00,VWS V14.01,2013-11-02 01:02:00,
2013-11-01 21:03:00,81.4,70.2,29.45,NW,321,0.0,0.0,69,0.00,,,0.00,VWS V14.01,2013-11-02 01:03:00,
2013-11-01 21:04:00,81.9,70.4,29.45,NW,321,0.0,0.0,68,0.00,,,0.00,VWS V14.01,2013-11-02 01:04:00,
2013-11-01 21:06:00,81.9,70.4,29.45,NW,321,0.0,0.0,68,0.00,,,0.00,VWS V14.01,2013-11-02 01:06:00,
2013-11-01 21:08:00,81.3,70.0,29.45,NW,321,0.0,0.0,69,0.00,,,0.00,VWS V14.01,2013-11-02 01:08:00,
2013-11-01 21:10:00,81.7,70.6,29.45,NW,321,0.0,0.0,69,0.00,,,0.00,VWS V14.01,2013-11-02 01:10:00,
2013-11-01 21:12:00,81.8,70.9,29.45,NW,321,0.0,0.0,70,0.00,,,0.00,VWS V14.01,2013-11-02 01:12:00,
2013-11-01 21:13:00,81.3,69.9,29.45,NW,321,0.0,0.0,68,0.00,,,0.00,VWS V14.01,2013-11-02 01:13:00,
2013-11-01 21:14:00,81.5,70.7,29.45,NW,321,0.0,0.0,70,0.00,,,0.00,VWS V14.01,2013-11-02 01:14:00,
2013-11-01 21:16:00,81.4,70.7,29.45,NW,321,0.0,0.0,70,0.00,,,0.00,VWS V14.01,2013-11-02 01:16:00,
2013-11-01 21:18:00,81.3,70.0,29.45,NW,321,0.0,0.0,69,0.00,,,0.00,VWS V14.01,2013-11-02 01:18:00,
2013-11-01 21:20:00,81.4,70.8,29.45,NW,321,0.0,0.0,70,0.00,,,0.00,VWS V14.01,2013-11-02 01:20:00,
2013-11-01 21:22:00,81.4,71.0,29.45,NW,321,0.0,0.0,71,0.00,,,0.00,VWS V14.01,2013-11-02 01:22:00,
2013-11-01 21:23:00,81.0,70.0,29.45,NW,321,0.0,0.0,69,0.00,,,0.00,VWS V14.01,2013-11-02 01:23:00,
2013-11-01 21:24:00,81.4,70.9,29.45,NW,321,0.0,0.0,71,0.00,,,0.00,VWS V14.01,2013-11-02 01:24:00,
2013-11-01 21:26:00,81.3,70.8,29.45,NW,321,0.0,0.0,71,0.00,,,0.00,VWS V14.01,2013-11-02 01:26:00,
2013-11-01 21:28:00,80.8,69.8,29.45,NW,321,0.0,0.0,69,0.00,,,0.00,VWS V14.01,2013-11-02 01:28:00,
2013-11-01 21:30:00,81.1,70.6,29.45,NW,321,0.0,0.0,70,0.00,,,0.00,VWS V14.01,2013-11-02 01:30:00,
2013-11-01 21:32:00,81.0,70.5,29.45,NW,321,0.0,0.0,70,0.00,,,0.00,VWS V14.01,2013-11-02 01:32:00,
2013-11-01 21:33:00,80.6,69.7,29.45,NW,321,0.0,0.0,70,0.00,,,0.00,VWS V14.01,2013-11-02 01:33:00,
2013-11-01 21:34:00,81.2,70.7,29.45,NW,321,0.0,0.0,70,0.00,,,0.00,VWS V14.01,2013-11-02 01:34:00,
2013-11-01 21:36:00,80.9,70.3,29.45,NW,321,0.0,0.0,70,0.00,,,0.00,VWS V14.01,2013-11-02 01:36:00,
2013-11-01 21:38:00,80.5,69.7,29.45,NW,321,0.0,0.0,70,0.00,,,0.00,VWS V14.01,2013-11-02 01:38:00,
2013-11-01 21:40:00,81.1,70.3,29.45,NW,321,0.0,0.0,70,0.00,,,0.00,VWS V14.01,2013-11-02 01:40:00,
2013-11-01 21:42:00,80.9,70.0,29.45,NW,321,0.0,0.0,70,0.00,,,0.00,VWS V14.01,2013-11-02 01:42:00,
2013-11-01 21:43:00,80.5,69.8,29.45,NW,321,0.0,0.0,70,0.00,,,0.00,VWS V14.01,2013-11-02 01:43:00,
2013-11-01 21:44:00,81.0,70.1,29.45,NW,321,0.0,0.0,70,0.00,,,0.00,VWS V14.01,2013-11-02 01:44:00,
2013-11-01 21:46:00,81.0,70.1,29.45,NW,321,0.0,0.0,70,0.00,,,0.00,VWS V14.01,2013-11-02 01:46:00,
2013-11-01 21:48:00,80.5,69.9,29.45,NW,321,0.0,0.0,70,0.00,,,0.00,VWS V14.01,2013-11-02 01:48:00,
2013-11-01 21:50:00,81.0,70.0,29.45,NW,321,0.0,3.2,69,0.00,,,0.00,VWS V14.01,2013-11-02 01:50:00,
2013-11-01 21:52:00,80.4,69.9,29.45,NW,321,0.0,0.0,70,0.00,,,0.00,VWS V14.01,2013-11-02 01:52:00,
2013-11-01 21:54:00,81.3,70.1,29.45,NW,321,0.0,0.0,69,0.00,,,0.00,VWS V14.01,2013-11-02 01:54:00,
2013-11-01 21:56:00,81.1,70.0,29.45,NW,321,0.0,0.0,69,0.00,,,0.00,VWS V14.01,2013-11-02 01:56:00,
2013-11-01 21:57:00,80.3,70.0,29.45,NW,321,0.0,0.0,71,0.00,,,0.00,VWS V14.01,2013-11-02 01:57:00,
2013-11-01 21:58:00,81.2,70.0,29.45,NW,321,0.0,0.0,69,0.00,,,0.00,VWS V14.01,2013-11-02 01:58:00,
2013-11-01 22:00:00,81.2,70.0,29.45,NW,321,0.0,0.0,69,0.00,,,0.00,VWS V14.01,2013-11-02 02:00:00,
2013-11-01 22:02:00,80.3,70.1,29.45,NW,321,0.0,0.0,71,0.00,,,0.00,VWS V14.01,2013-11-02 02:02:00,
2013-11-01 22:04:00,81.4,70.2,29.45,NW,321,0.0,0.0,69,0.00,,,0.00,VWS V14.01,2013-11-02 02:04:00,
2013-11-01 22:06:00,81.3,70.0,29.45,NW,321,0.0,0.0,69,0.00,,,0.00,VWS V14.01,2013-11-02 02:06:00,
2013-11-01 22:07:00,80.4,70.3,29.45,NW,321,0.0,0.0,72,0.00,,,0.00,VWS V14.01,2013-11-02 02:07:00,
2013-11-01 22:08:00,81.3,70.0,29.45,NW,321,0.0,0.0,69,0.00,,,0.00,VWS V14.01,2013-11-02 02:08:00,
2013-11-01 22:10:00,81.2,69.9,29.45,NW,321,0.0,0.0,69,0.00,,,0.00,VWS V14.01,2013-11-02 02:10:00,
2013-11-01 22:12:00,80.1,70.2,29.46,NW,321,0.0,0.0,72,0.00,,,0.00,VWS V14.01,2013-11-02 02:12:00,
2013-11-01 22:14:00,81.4,70.1,29.45,NW,321,0.0,0.0,69,0.00,,,0.00,VWS V14.01,2013-11-02 02:14:00,
2013-11-01 22:16:00,81.2,69.9,29.45,NW,321,0.0,0.0,69,0.00,,,0.00,VWS V14.01,2013-11-02 02:16:00,
2013-11-01 22:17:00,80.1,70.4,29.46,NW,321,0.0,0.0,72,0.00,,,0.00,VWS V14.01,2013-11-02 02:17:00,
2013-11-01 22:18:00,81.1,69.9,29.45,NW,321,0.0,0.0,69,0.00,,,0.00,VWS V14.01,2013-11-02 02:18:00,
2013-11-01 22:20:00,80.9,69.8,29.45,NW,321,0.0,0.0,69,0.00,,,0.00,VWS V14.01,2013-11-02 02:20:00,
2013-11-01 22:22:00,80.1,70.5,29.46,NW,321,0.0,0.0,72,0.00,,,0.00,VWS V14.01,2013-11-02 02:22:00,
2013-11-01 22:24:00,80.9,69.9,29.45,NW,321,0.0,0.0,69,0.00,,,0.00,VWS V14.01,2013-11-02 02:24:00,
2013-11-01 22:26:00,80.7,69.7,29.45,NW,321,0.0,0.0,69,0.00,,,0.00,VWS V14.01,2013-11-02 02:26:00,
2013-11-01 22:27:00,79.8,70.3,29.46,NW,321,0.0,0.0,73,0.00,,,0.00,VWS V14.01,2013-11-02 02:27:00,
2013-11-01 22:28:00,80.7,69.7,29.45,NW,321,0.0,0.0,69,0.00,,,0.00,VWS V14.01,2013-11-02 02:28:00,
2013-11-01 22:30:00,80.6,69.7,29.45,NW,321,0.0,0.0,69,0.00,,,0.00,VWS V14.01,2013-11-02 02:30:00,
2013-11-01 22:32:00,80.0,70.7,29.46,NW,321,0.0,0.0,73,0.00,,,0.00,VWS V14.01,2013-11-02 02:32:00,
2013-11-01 22:34:00,80.5,69.6,29.45,NW,321,0.0,0.0,70,0.00,,,0.00,VWS V14.01,2013-11-02 02:34:00,
2013-11-01 22:36:00,80.6,69.8,29.45,NW,321,0.0,0.0,70,0.00,,,0.00,VWS V14.01,2013-11-02 02:36:00,
2013-11-01 22:37:00,79.7,70.6,29.46,NW,321,0.0,0.0,74,0.00,,,0.00,VWS V14.01,2013-11-02 02:37:00,
2013-11-01 22:38:00,80.3,69.5,29.45,NW,321,0.0,0.0,70,0.00,,,0.00,VWS V14.01,2013-11-02 02:38:00,
2013-11-01 22:40:00,80.4,69.7,29.45,NW,321,0.0,0.0,70,0.00,,,0.00,VWS V14.01,2013-11-02 02:40:00,
2013-11-01 22:42:00,79.5,70.5,29.46,NW,321,0.0,0.0,74,0.00,,,0.00,VWS V14.01,2013-11-02 02:42:00,
2013-11-01 22:44:00,80.4,69.8,29.45,NW,321,0.0,0.0,70,0.00,,,0.00,VWS V14.01,2013-11-02 02:44:00,
2013-11-01 22:46:00,80.5,69.9,29.45,NW,321,0.0,0.0,70,0.00,,,0.00,VWS V14.01,2013-11-02 02:46:00,
2013-11-01 22:47:00,79.4,70.6,29.46,NW,321,0.0,0.0,75,0.00,,,0.00,VWS V14.01,2013-11-02 02:47:00,
2013-11-01 22:48:00,80.5,70.0,29.45,NW,321,0.0,0.0,70,0.00,,,0.00,VWS V14.01,2013-11-02 02:48:00,
2013-11-01 22:50:00,80.3,69.8,29.45,NW,321,0.0,0.0,70,0.00,,,0.00,VWS V14.01,2013-11-02 02:50:00,
2013-11-01 22:52:00,79.3,70.7,29.46,NW,321,0.0,0.0,75,0.00,,,0.00,VWS V14.01,2013-11-02 02:52:00,
2013-11-01 22:54:00,80.3,69.9,29.45,NW,321,0.0,0.0,71,0.00,,,0.00,VWS V14.01,2013-11-02 02:54:00,
2013-11-01 22:56:00,80.5,70.2,29.45,NW,321,0.0,0.0,71,0.00,,,0.00,VWS V14.01,2013-11-02 02:56:00,
2013-11-01 22:57:00,79.2,70.7,29.46,NW,321,0.0,0.0,75,0.00,,,0.00,VWS V14.01,2013-11-02 02:57:00,
2013-11-01 22:58:00,80.3,70.0,29.46,NW,321,0.0,0.0,71,0.00,,,0.00,VWS V14.01,2013-11-02 02:58:00,
2013-11-01 23:00:00,80.3,70.1,29.45,NW,321,0.0,0.0,71,0.00,,,0.00,VWS V14.01,2013-11-02 03:00:00,
2013-11-01 23:02:00,79.0,70.6,29.46,NW,321,0.0,0.0,76,0.00,,,0.00,VWS V14.01,2013-11-02 03:02:00,
2013-11-01 23:04:00,80.3,70.2,29.45,NW,321,0.0,0.0,71,0.00,,,0.00,VWS V14.01,2013-11-02 03:04:00,
2013-11-01 23:06:00,80.3,70.2,29.45,NW,321,0.0,0.0,71,0.00,,,0.00,VWS V14.01,2013-11-02 03:06:00,
2013-11-01 23:07:00,79.0,70.8,29.46,NW,321,0.0,0.0,76,0.00,,,0.00,VWS V14.01,2013-11-02 03:07:00,
2013-11-01 23:08:00,80.2,70.2,29.45,NW,321,0.0,0.0,72,0.00,,,0.00,VWS V14.01,2013-11-02 03:08:00,
2013-11-01 23:10:00,80.2,70.2,29.46,NW,321,0.0,0.0,72,0.00,,,0.00,VWS V14.01,2013-11-02 03:10:00,
2013-11-01 23:12:00,78.8,70.7,29.46,NW,321,0.0,0.0,76,0.00,,,0.00,VWS V14.01,2013-11-02 03:12:00,
2013-11-01 23:14:00,80.1,70.3,29.46,NW,321,0.0,0.0,72,0.00,,,0.00,VWS V14.01,2013-11-02 03:14:00,
2013-11-01 23:16:00,80.0,70.2,29.46,NW,321,0.0,0.0,72,0.00,,,0.00,VWS V14.01,2013-11-02 03:16:00,
2013-11-01 23:17:00,78.9,70.8,29.46,NW,321,0.0,0.0,76,0.00,,,0.00,VWS V14.01,2013-11-02 03:17:00,
2013-11-01 23:18:00,80.1,70.4,29.46,NW,321,0.0,0.0,72,0.00,,,0.00,VWS V14.01,2013-11-02 03:18:00,
2013-11-01 23:20:00,80.0,70.3,29.46,NW,321,0.0,0.0,72,0.00,,,0.00,VWS V14.01,2013-11-02 03:20:00,
2013-11-01 23:22:00,78.8,70.9,29.46,NW,321,0.0,0.0,77,0.00,,,0.00,VWS V14.01,2013-11-02 03:22:00,
2013-11-01 23:24:00,80.1,70.5,29.46,NW,321,0.0,0.0,73,0.00,,,0.00,VWS V14.01,2013-11-02 03:24:00,
2013-11-01 23:26:00,79.9,70.4,29.46,NW,321,0.0,0.0,73,0.00,,,0.00,VWS V14.01,2013-11-02 03:26:00,
2013-11-01 23:27:00,78.7,71.0,29.46,NW,321,0.0,0.0,77,0.00,,,0.00,VWS V14.01,2013-11-02 03:27:00,
2013-11-01 23:28:00,80.0,70.6,29.46,NW,321,0.0,0.0,73,0.00,,,0.00,VWS V14.01,2013-11-02 03:28:00,
2013-11-01 23:30:00,79.9,70.6,29.46,NW,321,0.0,0.0,73,0.00,,,0.00,VWS V14.01,2013-11-02 03:30:00,
2013-11-01 23:32:00,78.4,70.8,29.46,NW,321,0.0,0.0,78,0.00,,,0.00,VWS V14.01,2013-11-02 03:32:00,
2013-11-01 23:34:00,79.8,70.6,29.46,NW,321,0.0,0.0,74,0.00,,,0.00,VWS V14.01,2013-11-02 03:34:00,
2013-11-01 23:36:00,79.7,70.6,29.45,NW,321,0.0,0.0,74,0.00,,,0.00,VWS V14.01,2013-11-02 03:36:00,
2013-11-01 23:37:00,78.2,70.8,29.46,NW,321,0.0,0.0,78,0.00,,,0.00,VWS V14.01,2013-11-02 03:37:00,
2013-11-01 23:38:00,79.8,70.7,29.46,NW,321,0.0,0.0,74,0.00,,,0.00,VWS V14.01,2013-11-02 03:38:00,
2013-11-01 23:40:00,79.7,70.7,29.45,NW,321,0.0,0.0,74,0.00,,,0.00,VWS V14.01,2013-11-02 03:40:00,
2013-11-01 23:42:00,78.2,70.9,29.46,NW,321,0.0,0.0,78,0.00,,,0.00,VWS V14.01,2013-11-02 03:42:00,
2013-11-01 23:44:00,79.4,70.6,29.46,NW,321,0.0,0.0,74,0.00,,,0.00,VWS V14.01,2013-11-02 03:44:00,
2013-11-01 23:46:00,79.3,70.6,29.46,NW,321,0.0,0.0,75,0.00,,,0.00,VWS V14.01,2013-11-02 03:46:00,
2013-11-01 23:48:00,79.4,70.6,29.45,NW,321,0.0,0.0,75,0.00,,,0.00,VWS V14.01,2013-11-02 03:48:00,
2013-11-01 23:49:00,78.2,71.2,29.46,NW,321,0.0,0.0,79,0.00,,,0.00,VWS V14.01,2013-11-02 03:49:00,
2013-11-01 23:50:00,79.3,70.6,29.46,NW,321,0.0,0.0,75,0.00,,,0.00,VWS V14.01,2013-11-02 03:50:00,
2013-11-01 23:52:00,79.3,70.7,29.46,NW,321,0.0,0.0,75,0.00,,,0.00,VWS V14.01,2013-11-02 03:52:00,
2013-11-01 23:54:00,79.3,70.8,29.46,NW,321,0.0,0.0,75,0.00,,,0.00,VWS V14.01,2013-11-02 03:54:00,
2013-11-01 23:55:00,78.2,71.3,29.46,NW,321,0.0,0.0,79,0.00,,,0.00,VWS V14.01,2013-11-02 03:55:00,
2013-11-01 23:56:00,79.2,70.7,29.46,NW,321,0.0,0.0,75,0.00,,,0.00,VWS V14.01,2013-11-02 03:56:00,
2013-11-01 23:58:00,79.2,70.7,29.46,NW,321,0.0,0.0,75,0.00,,,0.00,VWS V14.01,2013-11-02 03:58:00,